GFSMW_700_temp_000.txt.gz
Temp
6 6 5 5 4 4 3 2 2 1 1 1 1 1 0 -0 -1 -1 -1 -2 -2 -2 -2 -2 -2 -2 -2 -2 -2 -2 -2 -3 -3 -4 -5 -5 -5 -5 -5 -5 -5 -5 -5
6 6 5 5 4 4 3 3 2 1 1 1 -0 -1 -2 -1 -1 -1 -1 -2 -2 -2 -2 -2 -2 -2 -2 -2 -3 -4 -4 -5 -5 -5 -6 -6 -6 -6 -6 -7 -7 -7 -6
5 5 5 4 4 3 3 2 2 1 1 -0 -1 -1 -1 -1 -1 -1 -1 -1 -1 -1 -2 -2 -2 -2 -3 -4 -5 -5 -6 -7 -7 -7 -7 -7 -8 -8 -8 -7 -7 -7 -7
5 5 4 4 4 3 2 1 1 0 -0 -1 -1 -1 -1 -1 -1 -1 -1 -1 -1 -2 -2 -3 -4 -5 -6 -6 -7 -7 -7 -7 -8 -9 -9 -9 -9 -8 -8 -8 -8 -8 -8
4 5 4 3 3 3 2 1 1 0 -0 -0 -0 -0 -0 -1 -1 -1 -1 -1 -2 -3 -4 -5 -6 -7 -7 -7 -7 -8 -9 -10 -10 -9 -9 -9 -9 -9 -9 -9 -8 -8 -8
3 3 2 2 2 2 1 0 -0 -0 -0 -1 -1 -1 -2 -2 -2 -2 -3 -3 -4 -4 -5 -7 -7 -8 -8 -8 -9 -9 -10 -11 -10 -10 -10 -10 -10 -10 -9 -10 -11 -11 -10
3 3 3 2 2 1 1 0 -0 -1 -1 -2 -2 -2 -2 -3 -3 -3 -4 -4 -5 -6 -7 -7 -7 -8 -8 -9 -10 -10 -11 -12 -11 -11 -12 -11 -11 -11 -11 -12 -12 -13 -12
3 3 3 2 1 1 -0 -1 -1 -1 -2 -2 -2 -2 -3 -3 -4 -4 -5 -5 -6 -6 -7 -7 -7 -8 -9 -10 -11 -11 -12 -12 -12 -12 -12 -12 -13 -14 -14 -14 -14 -13 -14
3 2 2 2 1 0 -1 -2 -2 -3 -3 -2 -2 -2 -3 -3 -3 -4 -5 -6 -7 -7 -7 -8 -9 -11 -12 -12 -12 -13 -13 -13 -13 -13 -13 -14 -14 -15 -15 -15 -15 -16 -15
2 2 2 1 1 -0 -1 -2 -2 -3 -3 -3 -3 -3 -3 -4 -5 -6 -6 -7 -7 -8 -8 -9 -12 -12 -12 -13 -13 -13 -14 -14 -14 -14 -14 -14 -14 -15 -15 -16 -16 -16 -16
2 1 1 0 -0 -1 -2 -2 -3 -3 -4 -3 -4 -4 -5 -6 -6 -7 -7 -7 -8 -9 -9 -10 -11 -13 -13 -13 -14 -14 -15 -15 -14 -14 -14 -15 -15 -15 -15 -16 -16 -16 -17
2 1 0 -0 -2 -2 -3 -4 -4 -4 -4 -4 -5 -6 -6 -7 -7 -8 -8 -8 -9 -10 -10 -11 -12 -13 -14 -14 -15 -15 -15 -14 -14 -14 -14 -15 -15 -16 -16 -16 -16 -17 -17
1 1 -0 -2 -2 -3 -3 -4 -4 -5 -5 -6 -6 -6 -7 -7 -8 -8 -8 -9 -10 -11 -12 -12 -13 -14 -14 -15 -15 -15 -15 -15 -14 -15 -15 -16 -16 -16 -16 -16 -17 -17 -17
0 -0 -1 -2 -3 -3 -4 -5 -5 -5 -6 -6 -6 -7 -7 -8 -8 -9 -9 -10 -11 -12 -12 -13 -14 -15 -15 -15 -16 -15 -15 -15 -15 -16 -16 -16 -16 -16 -16 -16 -17 -17 -17
-1 -1 -2 -2 -2 -3 -5 -5 -5 -5 -6 -6 -7 -7 -8 -8 -9 -10 -11 -11 -12 -12 -13 -14 -14 -15 -16 -16 -16 -16 -16 -15 -16 -16 -16 -16 -16 -16 -17 -17 -17 -18 -18
-1 -2 -3 -3 -3 -4 -5 -5 -5 -6 -6 -7 -8 -8 -9 -9 -10 -11 -11 -12 -13 -13 -14 -14 -15 -16 -16 -16 -17 -16 -16 -16 -16 -16 -16 -16 -16 -17 -17 -17 -18 -18 -19
-2 -2 -3 -3 -4 -4 -5 -5 -6 -7 -7 -8 -9 -9 -10 -10 -11 -12 -12 -13 -13 -14 -15 -15 -16 -16 -16 -17 -17 -16 -16 -16 -16 -16 -16 -16 -16 -17 -17 -18 -18 -19 -20
-2 -2 -3 -4 -4 -5 -6 -6 -7 -8 -8 -9 -9 -10 -11 -11 -12 -12 -13 -13 -14 -14 -15 -16 -16 -16 -17 -17 -16 -16 -16 -16 -16 -16 -16 -16 -17 -17 -18 -18 -18 -19 -20
-3 -3 -4 -5 -6 -6 -6 -7 -8 -9 -9 -9 -10 -11 -11 -11 -12 -13 -13 -14 -14 -15 -16 -17 -17 -17 -17 -16 -16 -16 -16 -16 -16 -16 -16 -17 -17 -17 -18 -18 -18 -19 -20
-4 -4 -5 -6 -6 -7 -7 -8 -9 -9 -9 -10 -10 -11 -12 -12 -12 -13 -14 -14 -15 -15 -16 -16 -16 -16 -16 -17 -16 -16 -17 -16 -17 -17 -17 -17 -18 -18 -18 -18 -19 -19 -20
-4 -5 -6 -7 -7 -8 -8 -9 -9 -9 -9 -10 -11 -12 -12 -12 -13 -14 -14 -15 -15 -16 -16 -16 -16 -17 -17 -17 -17 -17 -17 -17 -17 -17 -17 -18 -18 -18 -18 -18 -19 -19 -20
-5 -6 -7 -7 -8 -8 -9 -9 -9 -9 -10 -11 -12 -12 -12 -13 -13 -14 -15 -15 -16 -16 -16 -16 -17 -17 -17 -17 -17 -17 -17 -17 -18 -17 -17 -18 -18 -18 -18 -18 -19 -19 -20
-6 -7 -8 -8 -8 -9 -9 -9 -9 -9 -10 -11 -12 -12 -13 -13 -14 -15 -15 -16 -16 -16 -16 -16 -17 -17 -17 -17 -17 -17 -18 -18 -18 -18 -18 -18 -19 -19 -19 -18 -18 -19 -19
-6 -8 -8 -8 -9 -9 -9 -9 -10 -10 -11 -12 -13 -13 -13 -14 -14 -15 -16 -16 -16 -16 -16 -17 -17 -17 -17 -17 -17 -18 -18 -18 -18 -18 -18 -18 -19 -19 -19 -19 -19 -19 -19
-7 -8 -8 -9 -9 -9 -10 -10 -10 -11 -12 -13 -13 -13 -13 -14 -15 -15 -16 -16 -16 -16 -16 -16 -17 -17 -17 -17 -17 -18 -18 -18 -18 -18 -18 -19 -19 -19 -19 -19 -19 -19 -19
-9 -9 -9 -9 -9 -10 -10 -10 -11 -12 -12 -13 -13 -13 -14 -14 -15 -16 -16 -16 -16 -16 -16 -16 -17 -17 -17 -17 -18 -18 -18 -19 -19 -19 -19 -19 -19 -19 -19 -19 -19 -19 -19

GFSMW_700_temp_006.txt.gz
Temp
6 5 5 5 4 4 3 3 2 2 2 1 1 0 0 0 -0 -1 -1 -1 -1 -1 -1 -1 -1 -1 -2 -2 -3 -4 -4 -4 -4 -4 -4 -4 -5 -6 -4 -5 -4 -5 -5
6 5 5 5 4 4 3 3 3 2 1 1 1 0 -1 -1 -2 -2 -2 -2 -1 -1 -2 -2 -2 -2 -3 -3 -3 -4 -4 -5 -5 -4 -4 -4 -5 -8 -8 -7 -8 -7 -7
6 5 5 5 4 3 3 3 2 1 1 1 0 -1 -1 -1 -1 -1 -1 -1 -1 -2 -2 -2 -3 -3 -3 -4 -4 -5 -5 -5 -6 -6 -6 -6 -7 -8 -8 -10 -10 -10 -9
6 5 5 4 3 3 3 2 2 1 0 0 -0 -1 -1 -1 -2 -2 -1 -2 -2 -2 -2 -3 -3 -4 -4 -5 -5 -5 -6 -6 -7 -8 -9 -9 -10 -10 -11 -12 -12 -11 -10
4 4 3 3 3 3 2 2 2 1 -0 -1 -1 -1 -1 -2 -2 -2 -2 -3 -3 -3 -3 -4 -4 -5 -5 -6 -6 -7 -7 -8 -9 -10 -11 -11 -11 -12 -13 -13 -13 -13 -14
4 3 3 3 3 2 2 1 1 0 -0 -1 -1 -1 -2 -2 -2 -2 -2 -2 -3 -3 -4 -5 -5 -6 -6 -7 -8 -8 -10 -11 -11 -11 -12 -12 -12 -13 -15 -14 -14 -13 -13
4 3 3 3 2 2 1 1 0 -0 -1 -1 -1 -2 -2 -2 -2 -2 -3 -3 -4 -4 -5 -6 -6 -7 -8 -8 -9 -11 -12 -12 -12 -12 -13 -14 -15 -15 -16 -16 -16 -14 -12
3 3 3 2 2 2 1 0 -0 -1 -1 -2 -2 -2 -3 -3 -3 -3 -4 -4 -5 -6 -6 -7 -7 -7 -8 -9 -11 -11 -12 -12 -13 -13 -14 -15 -16 -16 -16 -17 -17 -14 -12
3 3 3 2 2 1 0 -0 -1 -1 -1 -2 -2 -3 -3 -3 -4 -4 -5 -6 -6 -6 -7 -7 -8 -9 -9 -11 -12 -13 -13 -13 -14 -15 -16 -16 -16 -17 -16 -17 -17 -17 -14
3 3 2 2 1 1 -0 -1 -1 -1 -2 -3 -3 -3 -3 -4 -5 -5 -6 -6 -6 -7 -8 -8 -9 -10 -11 -12 -13 -13 -15 -14 -15 -16 -16 -16 -16 -16 -17 -17 -18 -18 -18
3 2 2 2 1 1 -0 -1 -1 -2 -2 -2 -3 -3 -4 -5 -5 -5 -6 -6 -7 -8 -8 -9 -10 -11 -12 -13 -14 -14 -15 -16 -16 -16 -17 -17 -16 -17 -17 -17 -18 -18 -18
2 2 2 1 1 0 -1 -1 -2 -2 -2 -3 -3 -5 -5 -5 -5 -6 -6 -7 -8 -9 -9 -10 -11 -12 -13 -14 -14 -15 -16 -16 -16 -17 -17 -17 -17 -16 -16 -17 -18 -19 -19
3 2 2 2 1 -0 -1 -2 -2 -3 -4 -4 -4 -5 -5 -5 -6 -6 -7 -8 -8 -9 -10 -11 -12 -13 -14 -14 -15 -16 -16 -16 -16 -16 -16 -16 -16 -16 -16 -16 -16 -16 -16
3 2 2 2 1 -1 -2 -2 -3 -3 -4 -4 -5 -5 -5 -6 -6 -7 -8 -9 -9 -10 -11 -12 -12 -13 -14 -15 -16 -16 -16 -16 -17 -17 -16 -16 -16 -16 -16 -16 -16 -16 -17
2 2 2 1 0 -1 -2 -3 -3 -4 -4 -5 -5 -6 -6 -6 -7 -8 -8 -9 -10 -11 -11 -12 -13 -14 -15 -15 -16 -16 -16 -16 -17 -16 -16 -16 -16 -16 -16 -16 -16 -17 -17
2 2 1 1 -1 -2 -3 -3 -3 -4 -5 -5 -6 -6 -7 -7 -8 -8 -9 -10 -11 -11 -12 -13 -14 -14 -15 -16 -16 -16 -16 -16 -16 -16 -16 -16 -16 -16 -16 -16 -17 -17 -17
1 1 0 -1 -2 -3 -3 -4 -4 -5 -6 -6 -6 -7 -7 -8 -8 -9 -10 -11 -11 -12 -13 -14 -14 -15 -15 -15 -16 -16 -16 -17 -17 -17 -17 -17 -17 -17 -17 -17 -17 -17 -18
1 0 -1 -2 -2 -3 -3 -4 -5 -6 -6 -6 -7 -7 -8 -8 -9 -9 -10 -11 -12 -13 -14 -14 -14 -15 -15 -16 -16 -16 -16 -17 -17 -17 -17 -17 -17 -17 -17 -17 -18 -18 -18
-0 -1 -2 -2 -2 -3 -3 -5 -6 -7 -6 -7 -7 -8 -8 -9 -9 -10 -11 -12 -13 -13 -14 -15 -15 -15 -15 -16 -16 -16 -17 -17 -17 -17 -17 -17 -17 -17 -18 -18 -18 -18 -18
-1 -2 -2 -3 -3 -3 -3 -5 -7 -7 -8 -8 -8 -8 -9 -9 -9 -11 -12 -13 -13 -14 -14 -15 -15 -16 -16 -16 -16 -17 -17 -17 -17 -17 -18 -18 -18 -18 -18 -18 -18 -18 -18
-2 -2 -3 -3 -4 -4 -4 -6 -8 -9 -8 -8 -8 -9 -9 -9 -10 -11 -13 -13 -13 -14 -15 -15 -16 -16 -16 -16 -16 -17 -17 -17 -17 -17 -18 -18 -18 -18 -18 -19 -19 -19 -18
-2 -3 -3 -3 -4 -4 -7 -9 -9 -9 -9 -8 -9 -9 -9 -10 -11 -12 -13 -13 -14 -14 -15 -15 -16 -16 -16 -16 -16 -17 -17 -17 -17 -18 -18 -18 -18 -18 -18 -19 -19 -19 -19
-3 -3 -3 -4 -4 -5 -9 -9 -10 -9 -9 -9 -9 -9 -10 -11 -12 -12 -13 -13 -14 -15 -15 -16 -16 -16 -16 -16 -16 -17 -17 -17 -18 -18 -19 -19 -19 -19 -18 -18 -19 -19 -19
-3 -3 -4 -4 -4 -7 -8 -10 -10 -9 -9 -9 -9 -10 -11 -11 -12 -12 -13 -14 -14 -15 -15 -16 -16 -16 -16 -16 -16 -17 -17 -17 -18 -18 -19 -19 -19 -19 -19 -19 -19 -19 -19
-4 -4 -4 -5 -8 -8 -11 -11 -10 -9 -10 -10 -10 -11 -11 -11 -12 -13 -13 -14 -15 -15 -15 -16 -16 -16 -16 -16 -17 -17 -17 -18 -18 -18 -19 -18 -19 -19 -19 -19 -19 -19 -19
-4 -5 -8 -8 -9 -11 -12 -11 -10 -10 -10 -11 -11 -12 -12 -12 -13 -13 -13 -14 -15 -15 -15 -16 -16 -16 -16 -16 -17 -17 -17 -18 -18 -18 -18 -18 -19 -19 -19 -19 -19 -19 -19

GFSMW_700_temp_009.txt.gz
Temp
5 5 5 4 4 4 4 4 3 3 3 2 1 1 1 1 1 1 0 -0 -1 -1 -1 -1 -2 -2 -1 -2 -2 -2 -2 -2 -3 -4 -3 -3 -3 -6 -6 -8 -8 -8 -7
6 5 5 5 4 4 4 3 3 3 2 2 1 1 1 1 0 -0 -1 -1 -1 -1 -1 -1 -1 -2 -2 -2 -2 -3 -3 -3 -4 -4 -5 -5 -4 -5 -7 -7 -7 -8 -10
6 6 5 5 4 4 3 3 3 3 2 2 1 0 0 -1 -1 -1 -1 -1 -1 -1 -2 -2 -2 -2 -2 -3 -3 -4 -4 -4 -5 -6 -6 -7 -8 -8 -8 -8 -9 -9 -10
6 6 5 5 5 3 3 3 2 2 1 1 0 -0 -1 -2 -1 -2 -2 -2 -2 -2 -2 -2 -2 -2 -3 -4 -4 -5 -5 -6 -6 -7 -8 -8 -9 -10 -10 -12 -12 -12 -12
6 5 3 5 4 3 3 3 2 2 1 0 -0 -0 -1 -1 -1 -1 -2 -2 -2 -2 -2 -3 -3 -3 -4 -5 -5 -5 -6 -7 -8 -8 -9 -10 -11 -12 -13 -13 -13 -13 -13
3 3 3 4 4 3 3 3 2 1 1 0 -0 -1 -1 -1 -2 -2 -2 -2 -2 -2 -3 -3 -4 -4 -5 -6 -6 -7 -8 -8 -10 -11 -11 -13 -14 -14 -14 -14 -14 -14 -14
5 4 4 4 4 3 3 2 1 1 1 0 -0 -1 -1 -1 -3 -2 -2 -2 -3 -3 -4 -4 -5 -5 -6 -7 -7 -8 -9 -11 -11 -12 -12 -14 -14 -15 -15 -15 -15 -15 -15
5 4 4 4 3 3 2 2 1 1 0 0 0 -1 -2 -2 -3 -2 -3 -3 -4 -4 -4 -5 -5 -6 -7 -8 -8 -10 -11 -12 -13 -13 -14 -15 -15 -15 -15 -15 -15 -15 -16
4 4 4 3 3 3 2 1 1 0 0 -0 -1 -2 -2 -2 -2 -2 -3 -4 -4 -5 -5 -6 -6 -7 -8 -10 -11 -11 -12 -13 -14 -15 -15 -15 -15 -16 -16 -16 -16 -16 -16
2 4 3 3 3 2 2 1 0 0 -0 -0 -1 -2 -2 -3 -3 -3 -4 -5 -5 -5 -6 -6 -7 -8 -9 -10 -12 -14 -14 -13 -14 -15 -15 -16 -16 -16 -16 -16 -16 -16 -16
1 2 2 3 3 2 2 1 -0 -0 -1 -1 -1 -2 -3 -3 -4 -4 -5 -5 -5 -5 -6 -7 -8 -9 -10 -13 -14 -14 -14 -14 -15 -15 -15 -16 -16 -16 -17 -17 -17 -17 -17
2 1 2 3 2 2 2 1 0 -1 -1 -1 -2 -3 -3 -4 -4 -5 -5 -5 -6 -6 -7 -8 -9 -10 -12 -12 -14 -15 -15 -15 -15 -15 -16 -16 -17 -17 -17 -18 -18 -18 -18
2 1 2 3 2 2 2 1 -0 -1 -2 -2 -2 -3 -4 -4 -5 -5 -5 -6 -6 -7 -8 -9 -10 -12 -12 -14 -15 -15 -15 -15 -16 -16 -16 -16 -17 -17 -17 -17 -16 -16 -16
2 1 2 3 2 2 1 0 -1 -1 -2 -2 -4 -4 -5 -5 -5 -5 -6 -7 -7 -8 -9 -9 -11 -12 -13 -14 -15 -15 -16 -16 -16 -16 -16 -16 -16 -16 -16 -16 -16 -16 -16
3 2 3 3 2 2 1 0 -1 -2 -3 -3 -5 -5 -5 -5 -5 -6 -7 -7 -8 -8 -9 -11 -11 -13 -14 -15 -15 -15 -15 -16 -16 -16 -16 -16 -16 -16 -16 -16 -16 -17 -17
3 3 3 2 2 2 1 -0 -1 -2 -3 -4 -5 -5 -6 -6 -6 -7 -7 -8 -8 -9 -11 -13 -13 -14 -14 -14 -15 -15 -15 -16 -16 -16 -17 -17 -17 -17 -17 -16 -16 -16 -17
2 2 2 1 1 1 -0 -1 -2 -3 -3 -5 -6 -7 -8 -7 -7 -8 -8 -9 -10 -10 -12 -14 -14 -14 -14 -14 -15 -15 -16 -16 -16 -16 -17 -17 -17 -17 -17 -17 -17 -17 -18
2 1 1 1 1 -0 -1 -2 -3 -3 -4 -5 -6 -8 -8 -7 -8 -8 -9 -10 -11 -13 -14 -14 -15 -15 -14 -14 -15 -15 -16 -16 -16 -17 -17 -17 -17 -17 -17 -17 -17 -18 -18
1 0 -0 -0 -0 -1 -2 -3 -3 -4 -5 -7 -9 -9 -8 -8 -9 -9 -9 -10 -11 -14 -15 -15 -15 -15 -15 -15 -15 -16 -16 -16 -16 -17 -17 -17 -18 -18 -18 -17 -18 -18 -18
-0 -1 -1 -2 -2 -2 -2 -3 -3 -4 -5 -8 -10 -10 -10 -9 -9 -9 -10 -11 -12 -13 -15 -15 -14 -15 -16 -15 -16 -16 -16 -16 -16 -17 -17 -17 -17 -18 -18 -18 -18 -18 -18
-1 -2 -2 -2 -2 -3 -3 -3 -5 -7 -8 -9 -10 -11 -9 -9 -9 -10 -11 -11 -12 -13 -13 -14 -14 -15 -15 -15 -15 -16 -16 -16 -16 -17 -17 -18 -18 -18 -18 -18 -18 -18 -18
-2 -2 -2 -3 -3 -3 -3 -4 -4 -7 -9 -10 -11 -11 -10 -9 -10 -10 -11 -12 -13 -13 -13 -14 -15 -15 -15 -15 -15 -16 -16 -16 -17 -17 -17 -18 -18 -18 -18 -18 -18 -18 -19
-2 -2 -2 -2 -3 -3 -3 -5 -6 -8 -10 -11 -11 -10 -9 -10 -11 -11 -11 -12 -13 -13 -14 -15 -15 -15 -15 -15 -15 -16 -16 -16 -17 -17 -17 -18 -18 -18 -18 -18 -18 -18 -18
-2 -2 -3 -3 -4 -4 -5 -7 -9 -10 -11 -11 -11 -10 -10 -10 -11 -12 -12 -13 -13 -13 -14 -15 -15 -15 -16 -16 -16 -15 -16 -16 -17 -17 -17 -18 -18 -18 -18 -18 -18 -19 -19
-3 -3 -4 -4 -4 -5 -7 -9 -9 -12 -12 -11 -10 -10 -11 -11 -11 -12 -13 -13 -13 -14 -14 -15 -15 -15 -16 -16 -16 -16 -16 -17 -17 -17 -18 -18 -18 -18 -18 -18 -18 -18 -19
-5 -5 -5 -6 -8 -8 -8 -9 -11 -12 -11 -10 -11 -11 -11 -12 -12 -12 -13 -13 -13 -14 -14 -15 -15 -15 -16 -16 -16 -16 -16 -17 -17 -17 -17 -18 -18 -18 -18 -18 -18 -18 -19

GFSMW_700_temp_012.txt.gz
Temp
4 5 5 5 4 5 5 4 4 3 3 3 3 2 2 1 1 1 1 1 0 0 -0 -0 -0 -0 -0 -1 -1 -1 -1 -1 -1 -2 -2 -3 -3 -3 -5 -4 -6 -7 -7
4 5 5 4 5 5 5 4 4 3 3 2 2 2 2 1 1 1 1 0 -0 -0 -1 -1 -1 -1 -1 -1 -1 -1 -2 -2 -2 -3 -3 -3 -3 -4 -4 -6 -7 -8 -8
5 5 5 5 4 3 3 3 4 3 3 3 2 1 0 0 1 1 0 -0 -0 -1 -1 -1 -1 -1 -1 -2 -2 -2 -2 -3 -3 -4 -4 -4 -4 -5 -6 -7 -9 -9 -8
5 5 6 5 5 4 4 3 2 3 3 2 2 1 1 1 1 0 -1 -1 -1 -2 -1 -2 -2 -2 -2 -2 -2 -3 -3 -4 -4 -5 -5 -7 -7 -8 -9 -10 -11 -12 -12
5 5 6 6 5 5 3 2 3 3 2 2 2 1 1 0 0 -0 -1 -1 -2 -1 -2 -2 -2 -2 -2 -3 -3 -4 -4 -5 -6 -7 -7 -9 -10 -11 -11 -11 -11 -12 -13
4 4 4 4 4 3 3 4 4 3 2 2 2 1 1 0 -0 -1 -1 -2 -2 -2 -2 -2 -2 -3 -3 -3 -4 -5 -6 -6 -7 -8 -9 -11 -12 -12 -13 -13 -13 -13 -13
4 3 3 3 3 4 4 4 3 3 2 2 2 1 1 0 -1 -1 -2 -2 -2 -3 -2 -2 -3 -3 -3 -4 -5 -6 -6 -8 -9 -11 -12 -12 -13 -13 -14 -15 -14 -15 -14
3 3 3 2 3 4 3 3 3 3 2 2 1 1 0 -0 -1 -1 -2 -2 -2 -3 -3 -3 -3 -3 -4 -4 -5 -6 -8 -10 -11 -12 -13 -13 -14 -14 -15 -15 -15 -15 -15
3 3 2 3 4 4 4 3 3 2 2 1 1 1 0 -0 -1 -2 -3 -2 -3 -3 -3 -4 -4 -4 -5 -5 -6 -8 -10 -11 -12 -13 -14 -14 -15 -15 -15 -16 -16 -16 -16
3 2 2 2 4 4 3 3 2 2 2 1 1 0 -0 -1 -2 -2 -3 -3 -3 -3 -4 -4 -5 -5 -6 -7 -8 -9 -11 -12 -13 -14 -14 -14 -15 -15 -15 -16 -16 -17 -17
3 3 2 2 2 3 3 3 2 2 2 1 0 -0 -1 -2 -2 -3 -3 -4 -4 -4 -5 -5 -5 -6 -7 -8 -10 -11 -12 -13 -14 -13 -14 -14 -15 -15 -15 -16 -16 -16 -17
4 2 2 1 1 3 3 3 2 2 2 1 -0 -1 -2 -2 -3 -3 -4 -4 -4 -5 -5 -6 -6 -7 -8 -10 -11 -12 -13 -15 -15 -15 -15 -15 -15 -16 -16 -16 -16 -16 -16
3 2 2 1 1 2 2 2 2 1 1 0 -1 -2 -2 -2 -3 -5 -5 -5 -5 -6 -6 -7 -7 -8 -10 -11 -12 -13 -14 -14 -15 -15 -15 -15 -16 -16 -16 -16 -16 -16 -16
4 3 2 2 1 1 2 2 1 1 0 -1 -2 -2 -2 -3 -5 -6 -7 -7 -7 -7 -7 -8 -8 -10 -11 -12 -13 -14 -14 -15 -15 -15 -15 -15 -15 -15 -15 -16 -16 -16 -16
4 3 3 2 1 1 1 1 0 0 -1 -2 -3 -3 -4 -4 -6 -8 -7 -8 -9 -8 -8 -8 -10 -11 -13 -13 -13 -14 -14 -15 -15 -15 -15 -16 -16 -16 -16 -16 -16 -17 -17
4 4 3 2 1 1 0 1 -0 -1 -1 -2 -3 -4 -4 -5 -6 -8 -8 -9 -8 -8 -9 -10 -12 -13 -13 -13 -14 -15 -15 -15 -15 -15 -16 -16 -16 -16 -16 -16 -17 -17 -17
3 3 2 1 1 1 0 -0 -1 -2 -2 -3 -3 -4 -5 -5 -10 -9 -10 -10 -9 -9 -10 -11 -13 -14 -14 -14 -14 -15 -15 -15 -15 -15 -16 -16 -16 -16 -17 -17 -18 -18 -18
2 2 2 1 1 0 -0 -1 -2 -2 -3 -4 -5 -5 -6 -8 -8 -10 -11 -10 -10 -10 -11 -12 -14 -14 -14 -15 -15 -15 -15 -16 -15 -16 -16 -16 -17 -17 -17 -17 -18 -18 -18
1 1 0 -0 -1 -1 -1 -2 -2 -3 -5 -5 -6 -7 -9 -9 -10 -11 -11 -11 -10 -10 -11 -12 -14 -14 -14 -15 -15 -15 -16 -15 -15 -16 -16 -16 -17 -17 -18 -18 -18 -18 -18
-0 -1 -1 -2 -2 -2 -3 -3 -4 -5 -5 -8 -9 -9 -9 -10 -12 -12 -11 -10 -10 -11 -12 -13 -13 -14 -14 -15 -15 -16 -16 -15 -16 -16 -16 -16 -17 -17 -18 -18 -18 -18 -18
-0 -1 -2 -2 -2 -3 -3 -4 -4 -5 -4 -7 -6 -9 -9 -10 -12 -12 -10 -10 -10 -11 -12 -12 -13 -14 -14 -15 -15 -15 -16 -15 -16 -16 -16 -17 -17 -17 -18 -18 -18 -18 -18
-1 -1 -2 -2 -2 -3 -3 -3 -3 -4 -4 -5 -9 -9 -9 -11 -12 -11 -11 -11 -11 -12 -12 -12 -13 -14 -14 -15 -15 -15 -16 -16 -16 -16 -16 -17 -17 -18 -18 -18 -18 -18 -18
-2 -1 -2 -2 -3 -3 -4 -4 -4 -4 -7 -9 -9 -9 -10 -11 -11 -11 -11 -11 -12 -12 -12 -13 -13 -14 -15 -15 -15 -15 -16 -16 -16 -16 -17 -17 -17 -18 -18 -18 -18 -18 -18
-2 -2 -3 -3 -4 -5 -5 -5 -6 -8 -9 -9 -10 -11 -12 -11 -11 -11 -11 -12 -12 -12 -13 -13 -14 -15 -16 -16 -15 -16 -16 -16 -16 -16 -17 -17 -17 -17 -18 -18 -18 -18 -18
-4 -4 -5 -5 -6 -6 -6 -8 -8 -8 -9 -10 -11 -11 -11 -11 -11 -11 -11 -12 -13 -13 -13 -14 -14 -15 -16 -16 -16 -16 -15 -15 -16 -16 -16 -17 -17 -17 -18 -18 -18 -18 -18
-5 -6 -6 -6 -7 -8 -9 -9 -9 -10 -11 -11 -11 -11 -11 -11 -11 -11 -12 -12 -13 -13 -14 -14 -14 -15 -16 -16 -16 -16 -16 -16 -16 -16 -16 -17 -17 -17 -17 -17 -18 -18 -18

GFSMW_700_temp_018.txt.gz
Temp
5 5 5 5 5 5 5 5 4 4 4 4 4 4 3 3 3 3 2 1 1 1 1 1 0 -1 -1 -0 -1 -1 -1 -1 -1 -1 -1 -1 -2 -2 -2 -3 -3 -4 -5
6 6 6 6 5 5 5 4 4 4 4 4 4 3 3 3 3 2 2 1 1 0 -0 -0 -1 -1 -1 -1 -1 -1 -1 -1 -1 -1 -2 -2 -2 -2 -3 -3 -4 -5 -7
6 6 6 6 6 5 4 4 3 3 3 4 4 4 3 3 2 2 1 0 0 -0 -0 -1 -2 -1 -1 -1 -1 -2 -2 -2 -2 -2 -2 -2 -2 -2 -3 -3 -4 -5 -7
7 5 5 6 6 6 5 4 3 4 3 3 4 3 3 3 2 1 1 0 0 -0 -1 -2 -2 -2 -1 -1 -2 -2 -2 -2 -2 -2 -3 -3 -3 -3 -3 -4 -5 -7 -9
7 7 7 6 6 5 5 4 4 5 4 4 3 3 3 2 2 1 1 0 0 -1 -1 -2 -2 -2 -2 -2 -2 -2 -2 -2 -3 -3 -4 -4 -4 -4 -4 -4 -6 -8 -10
6 6 5 5 5 4 4 4 4 2 2 2 3 3 2 2 1 1 0 0 -0 -1 -2 -2 -2 -2 -2 -2 -3 -3 -3 -3 -3 -4 -4 -5 -5 -7 -8 -8 -9 -10 -12
6 6 6 5 5 4 4 4 4 2 2 2 2 2 2 1 0 -0 -0 -0 -1 -2 -2 -3 -2 -3 -3 -3 -4 -3 -4 -4 -5 -5 -5 -6 -7 -9 -9 -10 -12 -11 -13
6 6 6 5 4 4 4 4 4 2 2 2 2 1 1 1 0 0 -1 -1 -2 -2 -2 -3 -3 -3 -4 -4 -4 -4 -5 -6 -6 -6 -7 -8 -9 -10 -11 -12 -13 -13 -13
6 6 5 5 5 4 4 4 3 3 2 2 1 1 1 0 -0 -1 -1 -2 -2 -3 -3 -3 -3 -4 -5 -5 -6 -6 -6 -7 -7 -7 -8 -10 -10 -12 -13 -14 -15 -15 -14
6 6 5 5 5 4 3 3 3 2 2 2 1 1 1 0 0 -0 -1 -2 -3 -3 -3 -3 -3 -5 -7 -8 -7 -7 -7 -8 -8 -10 -11 -12 -12 -13 -14 -14 -15 -15 -15
6 5 5 5 5 4 4 3 2 2 2 2 1 1 1 0 -1 -2 -2 -2 -2 -2 -3 -3 -4 -5 -7 -8 -8 -8 -8 -9 -10 -11 -12 -13 -13 -14 -14 -15 -15 -16 -15
6 5 5 5 5 4 4 4 3 3 2 2 1 1 1 -0 -1 -2 -2 -2 -3 -3 -3 -4 -5 -7 -9 -9 -9 -10 -10 -10 -11 -12 -13 -14 -14 -15 -15 -15 -15 -15 -15
6 5 5 5 4 4 4 3 3 3 2 2 1 1 0 -0 -2 -2 -2 -3 -3 -4 -4 -5 -7 -8 -9 -10 -11 -11 -11 -11 -12 -13 -13 -14 -15 -15 -15 -15 -15 -15 -15
5 4 4 4 3 3 3 3 2 2 1 1 0 -0 -1 -2 -3 -4 -4 -4 -4 -4 -5 -7 -9 -9 -9 -11 -11 -11 -12 -13 -13 -13 -14 -14 -15 -15 -15 -15 -15 -15 -15
5 4 3 3 3 3 2 2 2 1 1 0 -0 -1 -3 -3 -4 -4 -4 -4 -4 -5 -6 -9 -9 -9 -11 -11 -11 -12 -13 -14 -14 -14 -15 -15 -15 -15 -15 -15 -15 -16 -16
4 3 3 3 3 3 2 1 1 0 -0 -1 -1 -2 -3 -3 -4 -4 -4 -4 -4 -5 -8 -9 -9 -10 -11 -11 -12 -12 -13 -14 -14 -14 -15 -15 -15 -15 -15 -15 -16 -16 -16
4 4 4 4 3 3 2 0 0 -1 -1 -1 -2 -3 -4 -4 -4 -4 -4 -4 -6 -8 -9 -9 -10 -10 -10 -11 -12 -13 -14 -14 -14 -14 -15 -15 -15 -15 -15 -16 -16 -16 -17
3 2 2 2 1 1 1 0 -0 -1 -1 -2 -2 -3 -4 -4 -4 -4 -5 -5 -8 -9 -9 -10 -10 -10 -11 -11 -12 -13 -14 -15 -15 -15 -15 -15 -15 -15 -16 -16 -16 -17 -17
2 1 1 1 0 -0 -0 -1 -1 -1 -2 -2 -3 -3 -3 -4 -4 -4 -6 -8 -9 -9 -10 -10 -11 -11 -11 -12 -13 -13 -14 -14 -15 -15 -15 -15 -15 -15 -16 -16 -16 -17 -18
1 1 0 -0 -1 -1 -1 -2 -2 -2 -2 -3 -3 -3 -4 -5 -6 -7 -8 -8 -9 -10 -10 -11 -11 -11 -12 -12 -13 -13 -14 -14 -15 -15 -15 -15 -15 -16 -16 -16 -16 -17 -18
0 0 -0 -1 -1 -1 -2 -3 -3 -3 -3 -3 -3 -3 -4 -4 -7 -7 -8 -9 -10 -10 -12 -11 -11 -11 -12 -12 -13 -13 -13 -14 -15 -15 -15 -15 -15 -16 -16 -16 -17 -17 -17
-1 -1 -1 -1 -1 -2 -3 -4 -4 -4 -4 -5 -4 -5 -5 -7 -8 -8 -9 -10 -11 -11 -11 -11 -11 -12 -12 -13 -13 -13 -14 -14 -15 -15 -16 -15 -15 -16 -16 -16 -17 -17 -17
-1 -2 -2 -3 -3 -4 -5 -5 -5 -6 -6 -7 -7 -7 -7 -8 -8 -9 -10 -11 -12 -11 -11 -11 -12 -12 -12 -13 -13 -14 -14 -14 -15 -15 -16 -16 -16 -16 -16 -16 -17 -17 -17
-2 -2 -3 -3 -4 -6 -7 -7 -7 -7 -7 -7 -7 -7 -8 -9 -10 -10 -11 -11 -11 -12 -12 -12 -12 -12 -12 -13 -13 -14 -14 -14 -15 -15 -16 -16 -16 -16 -16 -16 -17 -17 -17
-3 -3 -4 -4 -5 -6 -6 -6 -6 -7 -7 -8 -8 -9 -10 -10 -11 -11 -11 -11 -12 -12 -12 -13 -13 -13 -13 -13 -14 -14 -14 -14 -15 -15 -15 -16 -16 -16 -16 -17 -17 -17 -17
-4 -4 -4 -5 -5 -6 -7 -7 -8 -8 -9 -10 -10 -10 -10 -11 -11 -11 -11 -12 -12 -12 -13 -13 -13 -13 -13 -14 -14 -14 -14 -15 -15 -15 -15 -16 -16 -16 -16 -16 -17 -17 -17

GFSMW_700_temp_021.txt.gz
Temp
6 6 5 5 5 5 5 5 5 5 4 4 4 3 3 3 3 3 3 2 1 1 1 0 0 0 0 0 0 0 -0 -0 -0 -1 -1 -1 -1 -1 -1 -2 -2 -2 -3
7 6 6 5 5 5 5 5 4 4 4 3 3 3 2 3 3 3 2 1 1 0 0 -0 -0 0 0 -0 -0 -0 -0 -0 -1 -1 -2 -2 -2 -2 -2 -2 -3 -3 -4
7 7 6 6 5 5 5 4 4 4 3 3 3 3 3 3 3 2 2 1 1 0 0 0 0 -0 -0 -1 -1 -1 -1 -1 -2 -2 -2 -2 -2 -2 -3 -3 -3 -4 -5
6 6 6 6 6 5 4 4 4 4 3 3 3 2 2 2 2 2 1 1 1 0 0 -0 -1 -1 -2 -2 -3 -3 -2 -2 -2 -3 -3 -3 -3 -4 -4 -4 -5 -6 -7
7 6 6 6 5 5 4 4 4 3 3 3 3 2 2 2 2 2 1 1 0 -0 -0 -1 -1 -1 -2 -2 -2 -3 -3 -3 -3 -3 -4 -4 -4 -5 -5 -6 -7 -8 -9
7 7 6 5 5 4 4 4 4 3 3 3 2 3 2 2 2 2 1 0 0 -0 -1 -1 -1 -2 -2 -3 -3 -4 -4 -4 -4 -5 -5 -5 -5 -6 -7 -7 -8 -9 -10
6 6 6 6 5 5 5 4 3 3 3 2 1 1 1 2 1 1 1 0 -0 -1 -1 -2 -3 -3 -3 -3 -4 -4 -4 -6 -6 -6 -6 -6 -7 -8 -8 -10 -10 -10 -11
7 7 6 6 6 5 4 4 3 3 3 2 1 1 1 1 1 -0 -1 -1 -1 -2 -2 -3 -3 -3 -3 -3 -4 -5 -6 -6 -7 -7 -7 -8 -8 -9 -10 -11 -11 -12 -13
7 7 6 5 5 5 4 4 3 3 3 2 2 1 1 1 0 0 -1 -1 -1 -2 -3 -3 -3 -3 -4 -4 -4 -5 -7 -8 -8 -8 -8 -9 -9 -10 -11 -12 -13 -14 -14
7 7 6 5 5 4 4 4 3 3 2 2 2 2 1 1 0 -0 -1 -1 -2 -2 -3 -3 -3 -4 -4 -5 -5 -6 -8 -9 -9 -9 -10 -10 -11 -12 -13 -14 -14 -15 -15
7 6 5 5 4 4 4 4 4 3 3 2 2 1 1 1 0 -0 -1 -1 -2 -3 -3 -3 -4 -4 -5 -5 -6 -8 -8 -9 -10 -10 -10 -11 -12 -13 -14 -15 -15 -15 -15
6 5 5 5 5 4 4 4 3 3 2 2 2 2 1 0 -0 -1 -1 -2 -3 -4 -4 -5 -5 -6 -5 -6 -8 -8 -9 -10 -10 -10 -11 -12 -13 -14 -14 -15 -15 -15 -15
6 6 5 5 5 4 4 4 3 2 2 2 1 1 1 -0 -1 -2 -3 -4 -4 -4 -5 -5 -5 -5 -6 -8 -8 -10 -10 -10 -11 -11 -12 -13 -13 -14 -14 -15 -15 -15 -15
6 5 5 5 4 4 3 3 3 2 2 1 1 1 0 -1 -2 -3 -3 -4 -4 -5 -5 -6 -5 -6 -8 -8 -10 -11 -10 -10 -11 -12 -13 -14 -14 -14 -15 -15 -15 -15 -15
5 5 5 4 3 3 3 2 2 2 1 0 0 -0 -1 -2 -3 -3 -3 -4 -4 -4 -6 -6 -6 -9 -9 -9 -11 -10 -10 -11 -12 -12 -13 -14 -14 -14 -15 -15 -15 -15 -15
5 5 5 4 3 2 2 2 2 1 1 -0 -1 -1 -2 -3 -3 -4 -3 -3 -4 -4 -5 -6 -8 -9 -9 -10 -10 -10 -11 -11 -12 -13 -14 -14 -15 -15 -15 -15 -15 -15 -16
4 4 3 3 3 2 2 2 1 1 0 -0 -1 -1 -2 -3 -4 -3 -4 -4 -4 -5 -6 -9 -8 -8 -10 -11 -10 -11 -11 -11 -12 -13 -14 -15 -15 -15 -15 -15 -15 -16 -16
3 3 2 2 1 1 1 1 1 0 -1 -1 -2 -2 -2 -3 -3 -3 -4 -4 -4 -7 -8 -8 -8 -9 -10 -10 -11 -11 -11 -12 -12 -13 -14 -14 -14 -15 -15 -15 -16 -16 -16
2 2 1 1 1 1 1 0 0 -0 -1 -2 -2 -3 -3 -3 -3 -4 -4 -4 -6 -8 -8 -8 -9 -10 -10 -11 -11 -11 -12 -12 -13 -13 -13 -14 -14 -15 -15 -15 -16 -16 -16
1 1 0 0 -0 -0 -0 -0 -1 -1 -2 -2 -3 -3 -3 -4 -4 -5 -5 -7 -8 -8 -8 -9 -10 -11 -11 -11 -11 -11 -12 -13 -13 -13 -14 -14 -15 -15 -15 -15 -16 -16 -16
0 0 0 0 -0 -0 -0 -1 -1 -2 -3 -4 -4 -4 -3 -4 -5 -5 -7 -8 -8 -8 -9 -10 -11 -11 -11 -11 -11 -12 -12 -13 -13 -14 -14 -14 -15 -16 -15 -15 -16 -16 -16
-0 -0 -1 -1 -1 -1 -1 -2 -2 -4 -5 -6 -6 -6 -6 -6 -7 -7 -8 -8 -9 -10 -10 -11 -11 -11 -11 -12 -12 -12 -13 -13 -13 -14 -15 -15 -15 -16 -16 -16 -16 -16 -16
-1 -1 -2 -2 -2 -2 -3 -3 -5 -6 -7 -7 -7 -8 -8 -8 -8 -8 -8 -9 -10 -11 -11 -11 -11 -11 -12 -12 -12 -13 -13 -13 -13 -14 -15 -15 -15 -16 -16 -16 -16 -16 -16
-2 -2 -2 -3 -3 -4 -4 -5 -6 -7 -8 -7 -7 -7 -8 -8 -8 -9 -9 -10 -11 -11 -11 -11 -11 -12 -12 -12 -13 -13 -13 -13 -14 -14 -15 -16 -15 -16 -16 -17 -16 -16 -17
-3 -3 -3 -4 -4 -4 -5 -5 -6 -7 -7 -7 -8 -8 -8 -9 -9 -10 -10 -11 -11 -11 -11 -12 -12 -12 -12 -13 -14 -14 -14 -14 -14 -15 -15 -16 -16 -16 -16 -17 -17 -17 -17
-3 -3 -4 -4 -5 -5 -6 -6 -7 -7 -8 -8 -9 -9 -10 -10 -10 -11 -11 -11 -12 -12 -12 -12 -13 -13 -13 -14 -14 -15 -15 -15 -15 -15 -15 -15 -16 -16 -16 -17 -17 -16 -17

GFSMW_700_temp_024.txt.gz
Temp
5 5 5 5 5 5 4 4 4 4 4 4 3 3 3 2 3 2 2 2 1 1 1 0 0 -0 -0 0 -0 -0 -1 -1 -1 -1 -1 -1 -1 -1 -1 -1 -1 -2 -2
6 6 6 6 5 5 5 5 5 5 4 4 3 3 2 2 3 2 2 2 1 1 1 0 0 0 0 -0 -0 -1 -1 -2 -2 -2 -2 -2 -2 -2 -2 -2 -2 -2 -2
6 6 6 6 6 6 5 5 5 4 4 3 3 3 3 3 2 2 2 1 1 1 1 1 0 -0 -0 -1 -1 -1 -2 -2 -2 -2 -2 -2 -2 -3 -3 -3 -3 -3 -3
6 6 6 6 6 5 5 5 5 4 3 3 3 3 2 2 1 1 1 1 1 1 0 0 -0 -0 -1 -1 -1 -2 -3 -3 -3 -3 -4 -4 -4 -4 -4 -4 -5 -5 -5
6 6 6 6 6 5 5 4 4 4 4 3 3 2 2 1 1 1 1 1 1 0 0 -0 -0 -0 -1 -1 -2 -3 -3 -3 -4 -4 -5 -5 -6 -6 -6 -6 -6 -7 -7
7 6 6 6 6 5 5 4 4 4 3 3 2 2 1 1 1 1 1 1 0 -0 -0 -0 -0 -1 -1 -2 -3 -3 -3 -4 -5 -5 -5 -5 -7 -7 -7 -7 -7 -8 -9
7 7 6 6 6 6 5 5 4 3 3 2 2 2 1 0 1 1 1 0 0 0 0 0 -1 -2 -2 -3 -3 -3 -4 -5 -5 -6 -6 -7 -8 -8 -8 -9 -9 -9 -10
7 7 7 7 6 5 5 4 4 4 3 2 2 2 2 1 0 0 1 1 1 0 -0 -2 -3 -2 -3 -4 -3 -4 -6 -6 -6 -6 -7 -8 -9 -9 -9 -9 -10 -11 -11
7 7 6 6 6 5 5 4 4 3 2 2 2 2 2 1 1 1 -0 0 0 -1 -1 -2 -3 -3 -5 -4 -5 -6 -6 -6 -6 -7 -8 -9 -10 -10 -10 -11 -11 -12 -12
7 7 6 6 6 5 4 4 3 3 2 2 2 2 2 1 1 0 0 -0 -1 -1 -2 -2 -3 -4 -4 -6 -6 -5 -6 -7 -7 -7 -9 -10 -10 -10 -11 -12 -13 -13 -14
7 6 6 6 5 5 4 4 4 4 3 2 2 2 2 1 1 0 0 -1 -1 -2 -3 -3 -4 -4 -5 -6 -6 -6 -7 -7 -8 -9 -10 -10 -10 -11 -12 -13 -13 -14 -14
7 6 6 6 5 5 4 4 3 3 2 2 2 2 1 1 0 -0 -1 -1 -2 -3 -3 -3 -5 -5 -5 -6 -6 -7 -7 -7 -9 -10 -10 -10 -11 -12 -12 -13 -14 -14 -15
7 7 6 6 5 4 4 3 3 3 2 2 2 1 1 0 -0 -1 -1 -2 -3 -3 -4 -5 -4 -4 -5 -5 -7 -8 -8 -9 -10 -10 -10 -11 -11 -12 -13 -14 -14 -15 -15
6 6 6 6 5 4 3 3 2 3 3 2 2 1 1 0 -0 -1 -2 -3 -3 -4 -4 -3 -4 -4 -5 -7 -8 -8 -9 -10 -10 -11 -11 -11 -12 -12 -13 -14 -15 -15 -15
6 6 6 5 5 4 3 3 3 2 2 2 1 0 -0 -1 -1 -2 -2 -3 -4 -4 -4 -4 -4 -5 -6 -8 -8 -8 -10 -10 -10 -11 -11 -12 -12 -13 -14 -14 -15 -15 -15
6 5 5 5 4 4 3 3 2 2 2 2 1 0 -1 -1 -1 -2 -3 -3 -3 -4 -4 -4 -4 -5 -7 -8 -9 -9 -10 -11 -11 -11 -11 -12 -13 -13 -14 -14 -15 -15 -15
5 4 4 4 4 3 3 2 2 2 1 1 0 0 -0 -1 -2 -3 -3 -3 -3 -3 -4 -4 -6 -7 -8 -9 -9 -11 -11 -11 -11 -11 -12 -12 -13 -13 -14 -14 -15 -15 -15
3 3 3 3 3 3 2 2 1 1 0 0 0 -1 -1 -2 -3 -3 -3 -3 -4 -4 -5 -6 -7 -8 -9 -9 -10 -11 -11 -11 -11 -11 -12 -12 -13 -14 -14 -14 -15 -15 -15
3 3 3 3 2 1 1 0 -0 -0 -0 -1 -1 -2 -2 -3 -3 -3 -3 -4 -4 -6 -7 -8 -8 -9 -9 -10 -11 -11 -11 -11 -11 -12 -12 -13 -13 -14 -14 -14 -15 -15 -16
3 2 2 1 0 -0 -0 -0 -0 -0 -1 -1 -2 -3 -4 -4 -4 -4 -4 -6 -7 -8 -8 -8 -9 -9 -10 -11 -11 -11 -11 -11 -12 -12 -13 -13 -14 -14 -14 -15 -15 -16 -16
2 1 0 -0 -0 -1 -1 -1 -1 -1 -2 -2 -3 -4 -6 -6 -6 -6 -7 -7 -7 -8 -8 -9 -10 -10 -11 -11 -11 -11 -12 -12 -12 -12 -13 -14 -14 -14 -15 -15 -16 -16 -16
1 0 -0 -0 -1 -1 -1 -1 -2 -2 -3 -3 -4 -5 -6 -6 -7 -7 -8 -8 -8 -8 -9 -10 -10 -11 -11 -11 -11 -12 -12 -13 -13 -13 -13 -14 -15 -15 -15 -15 -16 -16 -16
-0 -0 -1 -1 -1 -2 -2 -3 -3 -4 -4 -5 -5 -6 -7 -7 -7 -8 -8 -8 -9 -9 -9 -10 -10 -11 -11 -12 -12 -12 -13 -13 -13 -13 -14 -14 -15 -15 -15 -15 -16 -17 -17
-1 -1 -1 -2 -2 -3 -3 -4 -4 -5 -5 -6 -6 -7 -8 -8 -8 -8 -8 -9 -9 -10 -10 -11 -11 -11 -11 -12 -13 -13 -13 -14 -14 -14 -15 -15 -15 -15 -15 -16 -16 -17 -17
-1 -2 -2 -3 -3 -4 -4 -5 -5 -6 -7 -7 -8 -8 -8 -8 -9 -9 -10 -10 -11 -11 -11 -12 -12 -12 -12 -12 -13 -14 -14 -15 -15 -15 -15 -15 -15 -15 -16 -16 -16 -17 -17
-2 -3 -4 -4 -4 -5 -5 -6 -7 -7 -7 -8 -8 -9 -9 -9 -10 -10 -10 -11 -11 -12 -12 -13 -13 -13 -13 -13 -13 -14 -15 -15 -16 -16 -15 -15 -15 -16 -16 -16 -16 -17 -17

GFSMW_700_temp_027.txt.gz
Temp
4 5 5 5 4 4 4 4 4 4 4 3 3 3 3 3 2 2 2 2 2 2 2 1 1 0 0 -0 -0 -0 -0 -1 -1 -1 -2 -2 -2 -1 -2 -2 -2 -2 -2
6 5 5 5 5 5 5 5 4 4 4 3 3 3 2 2 2 2 2 2 2 2 1 1 1 0 -0 -0 -1 -1 -1 -1 -2 -2 -3 -2 -2 -2 -2 -3 -3 -3 -3
6 6 6 6 5 5 5 5 4 4 4 3 3 3 3 2 2 2 1 1 1 1 1 1 0 0 -0 -0 -1 -1 -2 -2 -2 -3 -3 -3 -3 -3 -3 -3 -3 -4 -4
6 6 6 6 6 5 5 5 5 4 4 3 3 3 2 2 1 1 1 1 1 1 0 0 0 -0 -0 -1 -1 -2 -3 -3 -3 -3 -3 -3 -3 -4 -4 -4 -4 -5 -5
6 6 6 6 6 5 5 5 4 4 4 4 3 2 2 2 1 0 0 -0 0 1 0 0 -0 -1 -1 -1 -2 -2 -3 -3 -4 -3 -4 -4 -4 -4 -4 -4 -5 -7 -7
7 6 6 6 5 5 5 4 4 4 4 3 3 3 2 2 1 1 0 0 0 0 0 -0 -0 -1 -2 -2 -3 -3 -3 -4 -4 -4 -4 -4 -4 -5 -5 -6 -7 -8 -9
7 7 7 6 6 5 5 5 4 4 4 3 3 3 2 2 2 1 -0 1 0 0 -0 -1 -1 -1 -2 -2 -3 -3 -4 -4 -4 -4 -5 -5 -5 -5 -7 -8 -9 -9 -9
8 7 7 7 6 6 5 5 5 4 4 3 3 3 2 2 1 1 1 0 -0 -1 -1 -1 -1 -1 -2 -3 -3 -4 -4 -5 -5 -5 -5 -5 -6 -7 -8 -9 -9 -10 -10
8 8 7 7 6 6 5 5 5 4 3 3 2 2 2 2 1 1 1 1 -0 -1 -1 -1 -1 -2 -3 -3 -3 -4 -5 -5 -5 -6 -6 -6 -8 -8 -9 -10 -10 -11 -11
7 7 7 7 6 6 5 5 4 4 3 2 2 2 2 1 1 1 0 -0 -1 -1 -1 -2 -2 -3 -3 -3 -4 -4 -5 -5 -6 -7 -6 -7 -9 -9 -10 -11 -11 -11 -12
7 7 7 6 6 5 5 5 4 4 4 3 2 2 2 1 1 1 0 -1 -1 -1 -2 -2 -2 -3 -3 -4 -3 -4 -5 -6 -7 -7 -8 -9 -10 -10 -11 -11 -11 -12 -12
7 7 6 6 6 6 5 5 4 4 3 3 2 2 2 1 1 1 -0 -1 -1 -1 -2 -3 -3 -3 -4 -4 -4 -4 -6 -7 -7 -7 -8 -10 -10 -11 -11 -11 -12 -12 -13
6 7 6 6 6 5 5 4 3 3 3 3 2 2 1 1 1 0 -0 -1 -1 -1 -2 -3 -4 -3 -4 -4 -4 -5 -7 -7 -8 -8 -9 -10 -11 -11 -11 -12 -12 -13 -13
6 6 6 6 5 5 4 4 4 3 3 2 2 2 1 1 0 -0 -0 -1 -2 -3 -2 -3 -3 -4 -4 -4 -4 -8 -8 -7 -8 -9 -10 -11 -11 -11 -12 -12 -13 -13 -13
6 6 6 6 6 5 5 4 4 4 3 3 3 2 2 2 1 -0 -0 -1 -3 -2 -3 -3 -3 -4 -4 -5 -7 -7 -8 -8 -9 -10 -11 -11 -11 -12 -12 -12 -13 -13 -14
6 6 6 5 5 5 5 4 3 3 3 2 2 2 1 1 0 -0 -1 -3 -2 -3 -3 -3 -4 -5 -6 -6 -8 -8 -9 -9 -10 -10 -11 -11 -11 -12 -12 -13 -13 -14 -14
6 5 5 5 4 4 4 3 3 3 2 2 1 1 0 -0 -1 -1 -2 -3 -3 -4 -3 -3 -4 -6 -7 -8 -8 -9 -9 -9 -10 -11 -11 -11 -12 -12 -12 -13 -13 -14 -14
4 4 4 3 3 3 3 3 2 2 1 0 0 -0 -0 -1 -2 -3 -3 -3 -3 -4 -4 -4 -6 -8 -8 -9 -9 -9 -9 -10 -11 -11 -11 -12 -12 -12 -13 -13 -14 -14 -15
3 3 3 3 3 3 2 2 1 0 -0 -0 -1 -1 -2 -2 -3 -4 -4 -4 -5 -5 -7 -7 -8 -8 -9 -9 -10 -10 -10 -11 -11 -11 -12 -12 -12 -13 -13 -13 -14 -14 -15
3 3 2 2 2 1 1 0 -0 -0 -1 -1 -2 -2 -2 -3 -3 -4 -5 -5 -6 -6 -7 -8 -9 -9 -9 -10 -11 -11 -11 -11 -12 -12 -12 -12 -13 -13 -13 -14 -14 -14 -15
2 2 2 1 0 0 -0 -0 -1 -1 -1 -2 -2 -3 -3 -4 -4 -5 -5 -6 -7 -8 -8 -8 -9 -9 -10 -11 -11 -12 -12 -12 -12 -12 -12 -13 -13 -14 -14 -14 -14 -15 -16
1 1 0 0 -0 -1 -1 -1 -2 -2 -2 -3 -3 -3 -4 -5 -5 -6 -7 -8 -8 -8 -9 -9 -9 -10 -11 -11 -11 -12 -12 -13 -13 -13 -13 -13 -14 -14 -14 -15 -15 -15 -16
0 0 -0 -1 -1 -1 -2 -2 -2 -3 -3 -4 -4 -5 -6 -6 -7 -7 -8 -8 -8 -9 -9 -9 -9 -10 -11 -11 -12 -12 -13 -13 -13 -13 -13 -14 -15 -15 -15 -15 -15 -15 -16
-0 -1 -1 -1 -2 -2 -3 -3 -3 -4 -4 -5 -6 -6 -7 -7 -8 -8 -8 -9 -9 -10 -10 -10 -10 -10 -11 -11 -11 -12 -12 -13 -14 -14 -14 -15 -15 -15 -15 -15 -15 -16 -16
-1 -1 -2 -2 -3 -3 -4 -4 -4 -5 -6 -6 -7 -7 -8 -8 -8 -9 -9 -10 -10 -11 -11 -11 -11 -11 -11 -12 -12 -13 -13 -13 -14 -15 -15 -15 -16 -16 -16 -15 -16 -16 -16
-2 -2 -3 -4 -5 -5 -5 -5 -6 -7 -7 -7 -8 -8 -8 -9 -9 -10 -10 -10 -11 -11 -11 -12 -12 -12 -12 -12 -13 -13 -14 -14 -15 -15 -15 -16 -16 -16 -16 -15 -16 -16 -16

GFSMW_700_temp_030.txt.gz
Temp
4 4 4 4 4 4 4 4 4 3 3 3 3 3 3 2 2 2 2 2 2 2 2 2 2 1 1 1 1 0 -0 -1 -1 -1 -1 -1 -1 -1 -2 -1 -2 -2 -2
4 5 5 5 5 4 4 4 4 4 3 3 3 3 3 3 2 2 2 2 2 2 2 2 2 1 1 1 0 -0 -0 -1 -1 -1 -2 -2 -3 -1 -2 -2 -2 -2 -2
5 5 5 5 5 5 5 4 4 4 4 3 3 3 3 3 3 2 2 1 1 1 2 1 1 1 1 0 -0 -1 -1 -2 -2 -2 -2 -3 -4 -3 -3 -2 -2 -3 -3
6 6 6 6 6 5 5 5 4 4 4 4 3 3 3 3 2 2 1 1 1 1 1 1 1 0 -0 -0 -1 -1 -2 -2 -2 -2 -3 -3 -3 -4 -4 -3 -3 -3 -3
6 6 6 6 6 5 5 5 5 5 4 4 4 3 3 2 2 2 1 1 1 1 1 0 0 0 -0 -1 -1 -2 -2 -3 -3 -3 -3 -3 -3 -3 -4 -4 -5 -5 -5
7 6 6 6 6 5 5 5 5 4 4 4 4 3 3 2 2 2 1 1 1 1 0 -0 -0 -0 -1 -1 -2 -2 -2 -3 -2 -3 -4 -4 -4 -4 -4 -4 -5 -5 -6
7 6 6 6 6 6 5 5 5 5 4 4 4 3 3 2 1 1 1 1 0 0 0 -0 -0 -0 -1 -1 -2 -2 -2 -2 -4 -4 -4 -4 -5 -5 -5 -5 -5 -6 -8
8 7 7 6 6 6 6 5 5 5 4 4 4 3 3 2 2 1 1 1 -0 -0 -0 -0 -1 -1 -1 -1 -2 -2 -3 -3 -3 -4 -4 -5 -5 -5 -5 -6 -7 -8 -9
8 8 7 7 6 6 6 5 5 4 3 4 4 3 2 2 2 2 1 1 -0 -1 -0 -0 -1 -0 -2 -2 -1 -3 -3 -4 -4 -4 -5 -6 -7 -6 -6 -7 -8 -9 -10
8 8 8 7 7 7 6 5 5 4 4 4 4 3 2 2 2 1 0 -0 -0 -1 -0 -0 -1 -1 -2 -2 -2 -3 -4 -4 -4 -5 -6 -6 -6 -7 -7 -9 -10 -10 -10
7 7 7 7 7 6 6 6 5 5 4 4 4 3 3 3 2 1 1 0 0 -0 -0 -1 -1 -2 -1 -2 -3 -3 -4 -4 -5 -7 -7 -7 -7 -8 -9 -10 -10 -11 -11
7 7 7 7 6 6 6 6 5 5 4 4 4 4 3 3 2 2 1 1 0 -0 -1 -1 -2 -2 -2 -2 -3 -4 -3 -4 -7 -7 -7 -7 -8 -9 -10 -11 -11 -11 -13
6 6 6 7 6 6 6 5 5 5 4 4 3 3 3 2 2 1 1 1 0 0 -0 -1 -2 -1 -2 -3 -3 -4 -4 -6 -7 -7 -8 -8 -9 -10 -11 -12 -13 -14 -14
6 6 6 6 6 6 5 5 5 4 4 4 3 3 3 2 2 2 1 1 -0 -0 -1 -1 -2 -2 -2 -3 -3 -4 -6 -7 -8 -8 -8 -9 -10 -11 -11 -13 -14 -14 -14
6 6 6 6 6 6 5 5 4 4 3 4 3 3 3 2 2 1 1 1 -0 -1 -2 -2 -2 -3 -3 -4 -4 -5 -7 -8 -8 -9 -9 -10 -11 -12 -12 -12 -13 -13 -14
6 6 6 6 6 5 5 5 4 4 3 3 3 3 2 2 2 1 1 0 -0 -1 -2 -2 -3 -3 -4 -4 -6 -7 -8 -8 -9 -9 -10 -10 -11 -11 -12 -12 -12 -13 -14
6 6 6 6 5 5 4 4 4 3 3 3 3 2 1 1 0 0 -0 -1 -2 -3 -3 -3 -4 -5 -5 -7 -8 -8 -9 -9 -9 -9 -10 -11 -11 -12 -12 -12 -12 -12 -13
5 5 5 4 4 4 4 3 3 3 3 2 1 1 0 0 -0 -1 -1 -2 -3 -3 -3 -4 -5 -5 -7 -7 -8 -9 -9 -9 -10 -10 -11 -11 -11 -12 -12 -12 -12 -13 -13
4 4 3 3 3 3 3 3 2 2 1 1 0 0 -0 -1 -1 -2 -2 -3 -3 -4 -5 -5 -6 -7 -7 -8 -9 -9 -9 -10 -10 -11 -11 -12 -12 -12 -12 -13 -13 -13 -14
3 3 3 3 3 2 2 2 1 1 0 -0 -0 -1 -1 -2 -2 -3 -3 -3 -4 -5 -5 -6 -6 -7 -8 -9 -10 -10 -10 -10 -11 -11 -11 -12 -12 -13 -13 -13 -13 -14 -14
2 2 2 2 2 2 1 1 0 -0 -1 -1 -1 -2 -2 -3 -3 -3 -4 -4 -5 -6 -7 -8 -8 -9 -9 -10 -10 -11 -11 -11 -11 -11 -11 -12 -12 -13 -13 -14 -14 -14 -15
2 2 2 1 1 1 0 -0 -1 -1 -1 -2 -2 -2 -3 -3 -4 -4 -5 -6 -7 -7 -8 -8 -9 -9 -10 -10 -10 -11 -11 -12 -12 -12 -12 -12 -13 -13 -14 -14 -14 -15 -15
1 1 1 1 0 -0 -1 -1 -1 -2 -2 -2 -3 -4 -4 -5 -5 -6 -7 -7 -8 -8 -9 -9 -9 -9 -10 -10 -10 -11 -11 -11 -12 -12 -12 -13 -13 -14 -15 -15 -15 -15 -16
1 1 0 -0 -1 -1 -1 -2 -2 -2 -3 -4 -4 -5 -6 -6 -7 -7 -8 -8 -9 -9 -9 -9 -10 -10 -10 -11 -11 -11 -11 -12 -12 -13 -13 -14 -15 -15 -16 -16 -16 -16 -15
1 0 -0 -1 -1 -2 -2 -2 -3 -4 -4 -5 -6 -6 -7 -7 -8 -8 -9 -9 -9 -10 -10 -10 -11 -11 -11 -11 -12 -12 -12 -13 -14 -14 -15 -15 -15 -16 -16 -16 -17 -15 -15
0 -0 -1 -2 -2 -3 -3 -4 -5 -5 -6 -6 -7 -7 -8 -8 -9 -9 -9 -10 -10 -10 -11 -11 -11 -11 -12 -12 -12 -13 -14 -15 -15 -16 -16 -16 -16 -17 -17 -17 -17 -17 -17

GFSMW_700_temp_033.txt.gz
Temp
3 4 3 4 4 4 3 3 2 2 2 2 2 2 2 2 2 2 1 2 2 2 2 2 2 1 2 1 1 1 0 -0 -1 -1 -1 -0 1 1 0 -0 -1 -1 -1
3 5 5 5 5 4 4 4 3 3 3 3 3 3 3 2 2 2 2 2 2 2 2 2 2 2 1 1 1 0 -0 -0 -1 -1 -2 -1 -2 -2 -1 -1 -2 -2 -2
3 5 5 5 5 5 5 4 4 4 4 3 3 3 3 2 3 3 3 2 2 2 1 1 2 1 1 1 0 0 -0 -1 -1 -1 -2 -2 -3 -3 -4 -3 -2 -2 -2
4 4 6 6 5 5 5 4 4 4 4 4 4 4 3 3 3 3 2 2 1 1 1 1 1 1 1 1 0 -0 -0 -1 -2 -2 -2 -2 -2 -4 -3 -4 -3 -3 -2
5 5 6 6 6 6 5 5 5 4 4 4 4 4 3 3 3 3 2 2 2 1 1 0 0 0 0 0 0 -0 -1 -1 -1 -2 -3 -3 -3 -3 -3 -3 -4 -4 -4
6 5 5 5 6 6 6 5 5 5 5 4 4 4 4 3 3 3 3 2 1 1 1 0 0 0 0 -0 -1 -1 -2 -2 -2 -2 -3 -4 -4 -5 -5 -5 -5 -5 -5
6 6 6 5 4 6 6 6 5 5 5 5 5 4 4 4 3 3 2 1 2 1 0 -0 -0 -0 -0 -1 -1 -1 -1 -1 -2 -3 -3 -4 -4 -5 -5 -5 -5 -5 -6
7 6 6 6 5 6 6 6 5 5 5 4 4 4 3 3 3 3 2 2 1 1 -0 0 0 -1 -0 -1 -0 -1 -1 -2 -2 -3 -3 -4 -5 -5 -5 -6 -5 -6 -6
7 7 6 6 5 5 4 6 6 5 5 4 4 2 3 3 3 2 2 2 2 1 0 0 0 -0 -1 -1 -1 -1 -2 -2 -2 -3 -4 -5 -5 -6 -6 -6 -6 -6 -7
7 7 7 6 6 5 5 5 6 5 5 5 4 3 3 3 3 2 2 3 3 2 1 0 -0 -0 -1 -1 -1 -1 -2 -2 -2 -4 -4 -5 -6 -6 -6 -7 -7 -7 -8
7 7 7 7 6 5 4 4 6 6 5 5 4 4 4 3 3 3 3 3 2 1 1 0 0 -0 -0 -1 -1 -2 -2 -3 -3 -4 -4 -6 -7 -7 -7 -7 -8 -8 -10
7 7 7 7 7 7 6 6 6 6 6 5 4 4 4 4 4 2 2 2 2 1 1 1 0 -0 -1 -1 -2 -2 -3 -3 -4 -4 -6 -7 -7 -7 -8 -8 -9 -10 -12
6 6 6 7 6 6 6 6 6 5 5 5 4 4 4 4 3 3 3 2 2 1 1 1 0 -1 -1 -1 -2 -2 -3 -3 -4 -6 -7 -8 -8 -8 -9 -9 -11 -12 -12
6 5 6 6 6 6 6 6 6 6 5 5 4 4 3 3 3 3 2 2 1 1 1 0 -0 -1 -1 -2 -2 -3 -3 -4 -7 -7 -7 -8 -8 -9 -10 -10 -11 -12 -12
6 6 6 6 6 6 6 6 6 5 5 4 3 3 3 3 3 2 2 2 2 1 0 -2 -1 -2 -1 -2 -3 -4 -4 -6 -7 -7 -7 -8 -9 -9 -9 -10 -11 -11 -12
6 6 6 6 6 6 5 5 5 4 4 4 4 3 3 3 3 2 2 1 0 0 -0 -1 -2 -2 -3 -4 -4 -4 -5 -6 -7 -8 -8 -9 -9 -10 -10 -10 -11 -12 -12
6 6 6 6 6 5 5 5 5 4 4 4 3 3 3 3 2 1 1 0 -0 -1 -1 -2 -2 -4 -4 -4 -4 -5 -5 -7 -7 -8 -8 -9 -10 -10 -11 -11 -11 -11 -11
5 5 5 5 5 5 4 4 4 4 3 3 3 3 2 2 1 1 0 -0 -1 -1 -2 -2 -3 -3 -4 -5 -5 -6 -7 -7 -7 -8 -9 -9 -10 -10 -11 -12 -12 -12 -12
5 5 5 5 4 4 3 3 3 3 3 3 2 2 1 1 0 -0 -1 -1 -2 -2 -3 -3 -4 -4 -5 -5 -7 -7 -7 -8 -8 -9 -10 -10 -11 -11 -12 -12 -12 -12 -13
4 4 4 3 3 3 3 3 3 2 2 2 1 1 0 -0 -0 -1 -1 -2 -3 -3 -4 -4 -5 -6 -6 -7 -8 -8 -9 -9 -9 -10 -10 -10 -11 -11 -11 -12 -13 -13 -13
3 3 3 2 2 2 2 2 2 1 1 1 0 -0 -0 -1 -1 -2 -3 -3 -4 -4 -4 -5 -6 -7 -8 -8 -9 -9 -10 -10 -10 -10 -10 -11 -11 -11 -12 -13 -13 -14 -14
3 2 2 2 2 2 2 2 1 1 0 -0 -0 -1 -1 -2 -3 -3 -4 -4 -4 -5 -6 -7 -7 -8 -9 -9 -9 -9 -10 -11 -11 -11 -11 -11 -12 -12 -13 -14 -14 -15 -16
2 2 2 2 2 2 1 1 0 -0 -1 -1 -1 -2 -3 -3 -4 -4 -5 -5 -6 -7 -7 -8 -8 -9 -9 -10 -10 -10 -11 -11 -11 -11 -12 -12 -12 -13 -14 -14 -15 -15 -16
2 2 2 2 1 1 0 -0 -1 -1 -1 -2 -2 -3 -4 -4 -5 -6 -6 -7 -7 -8 -8 -9 -9 -10 -10 -10 -11 -11 -11 -11 -12 -12 -12 -13 -14 -15 -15 -15 -15 -16 -16
2 2 1 1 1 0 -0 -1 -1 -2 -2 -3 -3 -4 -5 -6 -6 -7 -7 -8 -8 -9 -9 -10 -10 -10 -11 -11 -11 -11 -12 -12 -12 -13 -14 -14 -15 -16 -16 -16 -17 -18 -18
2 1 1 1 0 -0 -1 -2 -2 -3 -3 -4 -5 -6 -6 -7 -7 -8 -8 -9 -9 -10 -10 -10 -11 -11 -11 -11 -12 -12 -12 -13 -13 -14 -15 -16 -16 -16 -16 -16 -16 -17 -17

GFSMW_700_temp_036.txt.gz
Temp
4 5 5 4 4 4 4 3 3 2 2 1 2 2 2 2 2 1 1 1 1 2 1 1 2 1 2 1 1 1 1 0 0 -1 -1 -1 -1 -1 -0 0 -0 -0 -0
4 6 5 5 5 5 4 4 3 3 2 3 2 2 2 2 2 2 2 1 0 2 1 1 2 1 1 1 1 1 0 0 0 -1 -1 -2 -2 -2 -2 -2 -1 -1 -2
5 6 6 6 5 5 5 4 4 4 3 3 2 3 3 3 3 3 2 3 2 2 2 2 2 1 1 1 1 1 0 -0 -1 -1 -1 -2 -2 -2 -3 -3 -3 -2 -2
4 6 6 6 6 5 5 5 4 4 4 4 4 4 3 3 3 3 3 3 2 2 2 1 1 1 1 0 1 0 -0 -1 -1 -1 -1 -2 -2 -2 -3 -2 -3 -3 -3
5 5 6 6 6 6 5 5 5 5 4 4 4 3 4 4 3 3 3 3 2 2 2 1 1 1 1 1 0 0 -0 -2 -3 -3 -3 -3 -3 -3 -3 -3 -4 -3 -4
6 5 5 6 6 6 6 5 5 5 5 5 4 4 3 3 3 3 3 3 2 2 2 1 1 1 0 0 -1 -1 -1 -1 -1 -2 -3 -4 -3 -3 -4 -4 -4 -5 -5
6 5 5 5 6 6 6 6 6 5 5 5 5 4 4 4 3 3 3 3 2 3 2 1 1 1 -0 -0 -1 -1 -0 -1 -1 -1 -2 -2 -3 -3 -4 -5 -5 -5 -6
7 7 6 6 5 6 6 6 6 6 5 5 5 5 3 3 2 2 1 2 2 2 1 1 2 1 0 -0 0 -0 -1 -1 -1 -2 -2 -3 -3 -4 -4 -5 -5 -5 -6
8 7 6 6 6 6 6 6 6 6 5 5 5 4 3 3 3 2 2 2 2 2 1 2 1 1 0 0 -0 -1 -2 -2 -2 -2 -2 -2 -4 -5 -4 -5 -6 -6 -6
8 7 7 7 6 6 6 5 6 6 5 5 5 5 4 4 3 2 2 2 2 2 2 2 1 1 1 0 -0 -0 -1 -2 -2 -3 -2 -3 -4 -5 -6 -6 -7 -7 -7
7 7 7 7 6 6 6 5 5 4 5 4 4 4 5 4 3 3 3 3 2 2 2 2 2 1 1 0 -0 -1 -1 -2 -2 -2 -3 -4 -4 -5 -6 -7 -7 -8 -9
7 6 7 7 7 7 6 5 5 5 4 3 3 3 3 4 4 3 3 3 2 2 2 2 2 1 0 -0 -1 -1 -2 -2 -2 -3 -4 -4 -5 -6 -6 -7 -7 -8 -9
6 6 7 7 7 7 7 6 5 4 4 4 3 3 4 4 3 3 3 3 3 2 2 2 1 1 0 -0 -1 -2 -2 -2 -3 -3 -4 -5 -6 -6 -7 -8 -8 -9 -10
6 6 5 6 6 6 7 6 6 5 5 5 4 5 5 3 3 3 3 3 3 2 2 2 1 1 -0 -1 -2 -2 -2 -3 -4 -5 -5 -5 -6 -7 -7 -8 -9 -10 -10
6 6 5 5 6 6 6 6 6 6 5 5 4 5 4 3 3 3 3 3 2 2 2 1 0 -0 -2 -3 -3 -3 -4 -4 -5 -5 -5 -6 -7 -8 -8 -9 -9 -10 -11
5 6 6 4 6 6 6 6 6 6 5 4 4 4 3 3 3 3 3 3 3 2 1 0 -0 -1 -2 -2 -3 -4 -4 -4 -5 -5 -6 -7 -8 -9 -9 -9 -10 -10 -11
6 6 6 5 5 6 6 6 6 5 5 4 4 4 4 3 3 3 3 2 2 1 0 -0 -1 -1 -2 -3 -4 -4 -4 -5 -5 -6 -7 -8 -8 -9 -9 -10 -10 -10 -11
6 5 5 5 5 5 6 5 5 5 4 4 4 3 3 3 3 2 2 1 1 0 -0 -1 -2 -2 -3 -3 -4 -4 -5 -5 -6 -7 -8 -9 -9 -9 -10 -10 -10 -10 -11
5 5 5 5 5 5 5 5 4 4 4 3 3 3 3 2 2 1 1 1 0 -1 -1 -2 -2 -3 -3 -4 -4 -5 -6 -7 -7 -8 -9 -9 -10 -10 -11 -11 -11 -11 -11
5 5 4 4 4 4 4 4 3 3 3 3 3 3 2 2 1 1 0 -0 -1 -1 -2 -3 -4 -4 -5 -5 -6 -7 -7 -8 -9 -9 -9 -10 -10 -11 -11 -11 -12 -12 -12
4 4 4 4 4 3 3 3 3 3 3 2 2 2 1 0 0 -0 -1 -1 -2 -3 -4 -4 -5 -5 -5 -6 -7 -8 -8 -9 -9 -9 -9 -10 -10 -11 -11 -12 -12 -13 -14
4 4 3 3 3 2 2 2 2 2 2 2 1 1 0 -0 -1 -1 -2 -2 -3 -4 -5 -5 -6 -6 -7 -7 -8 -9 -9 -9 -10 -10 -10 -11 -11 -11 -11 -12 -13 -14 -14
4 4 3 2 2 2 2 2 2 2 1 1 0 -0 -1 -1 -1 -2 -3 -4 -4 -5 -6 -6 -7 -8 -8 -8 -9 -9 -10 -10 -10 -11 -11 -11 -11 -11 -12 -13 -14 -15 -15
3 3 2 2 2 2 2 2 1 1 0 -0 -0 -1 -1 -2 -3 -4 -4 -5 -6 -7 -7 -8 -8 -9 -9 -9 -10 -10 -10 -11 -11 -11 -12 -12 -12 -12 -13 -13 -15 -15 -16
3 3 2 1 1 1 1 1 1 0 -0 -1 -1 -2 -3 -3 -4 -5 -6 -7 -7 -8 -8 -9 -9 -10 -10 -10 -10 -11 -11 -11 -12 -12 -12 -12 -12 -13 -14 -15 -15 -16 -16
3 2 2 1 1 1 1 0 -0 -1 -1 -2 -3 -4 -4 -5 -5 -7 -7 -8 -9 -9 -9 -10 -10 -10 -11 -11 -11 -11 -12 -12 -12 -13 -13 -13 -14 -15 -15 -16 -16 -17 -17

GFSMW_700_temp_039.txt.gz
Temp
5 4 4 4 5 5 5 4 4 4 3 3 3 2 2 1 1 1 1 1 1 1 1 1 2 2 1 1 1 1 1 1 0 -1 -1 -0 -1 -1 -1 -1 -1 -1 -0
5 5 5 5 5 5 4 4 4 3 3 3 3 2 2 2 1 1 2 2 2 2 1 1 2 1 1 1 1 1 1 0 -0 -0 -1 -1 -2 -1 -2 -2 -3 -1 -1
6 5 5 5 5 5 5 5 4 4 4 3 3 3 3 2 2 2 2 2 1 2 2 1 2 1 1 1 2 1 1 1 0 -0 -1 -1 -1 -2 -3 -3 -3 -3 -2
6 6 6 6 5 5 5 5 5 5 4 4 4 4 4 4 3 3 2 2 2 1 1 1 2 2 1 1 1 1 1 -1 -1 -0 -1 -2 -2 -3 -3 -4 -3 -3 -2
7 6 7 6 6 5 5 5 5 5 5 5 5 4 4 3 3 2 2 2 2 2 2 2 1 2 2 2 2 0 0 -0 -1 -1 -1 -1 -1 -2 -3 -2 -3 -4 -4
7 7 7 6 6 6 5 5 5 5 5 5 5 5 4 4 4 3 4 3 3 2 1 2 2 1 1 1 1 -0 -0 -1 -1 -1 -1 -1 -1 -2 -3 -3 -3 -3 -4
7 7 7 7 6 6 6 6 6 6 5 5 5 5 5 4 4 3 3 3 3 2 1 1 1 2 1 1 1 -0 -0 -0 -1 -1 -1 -2 -2 -3 -3 -3 -3 -3 -4
7 7 7 7 7 7 6 6 6 6 6 5 5 5 5 4 4 3 3 2 1 2 1 1 1 2 2 1 0 0 0 -1 -2 -2 -2 -2 -3 -3 -3 -3 -4 -4 -5
7 7 7 6 7 7 6 6 6 6 5 5 5 5 5 4 4 4 3 2 1 1 1 1 1 1 1 1 1 1 -0 -1 -2 -1 -2 -3 -3 -4 -3 -4 -4 -5 -4
8 7 6 7 6 7 6 6 6 6 6 5 5 5 5 4 4 3 2 2 2 1 2 1 1 1 1 1 1 0 -0 -1 -1 -3 -3 -3 -3 -3 -4 -4 -5 -5 -6
8 7 7 6 6 6 5 6 6 5 5 5 5 4 4 5 4 3 2 1 1 2 2 2 2 2 1 1 1 0 -0 -1 -2 -1 -2 -3 -3 -4 -4 -5 -5 -6 -7
8 7 7 7 6 6 6 5 5 5 4 6 5 4 4 3 1 2 3 1 2 2 3 2 2 2 1 1 0 -0 -1 -1 -2 -2 -3 -3 -3 -4 -5 -6 -6 -7 -8
7 7 7 7 7 7 6 6 5 5 5 5 5 3 3 4 4 4 3 3 3 2 2 2 2 2 1 1 1 -0 -0 -1 -2 -3 -3 -3 -5 -5 -5 -6 -7 -8 -8
7 7 7 7 7 7 7 6 6 5 5 4 4 4 5 5 4 4 3 3 3 2 2 2 2 2 1 1 0 -1 -2 -2 -3 -4 -4 -5 -6 -5 -6 -7 -8 -8 -9
7 6 6 6 6 7 6 6 6 6 5 5 5 5 5 5 4 3 3 3 3 3 2 2 2 2 1 -0 -1 -3 -4 -4 -4 -4 -6 -6 -5 -7 -7 -7 -8 -9 -9
6 6 6 6 6 6 6 6 6 6 6 6 5 5 5 4 4 4 3 3 3 2 3 2 1 1 -0 -1 -2 -3 -4 -4 -5 -5 -5 -6 -7 -7 -7 -8 -9 -9 -10
7 6 6 6 6 6 6 6 6 6 6 6 5 5 4 4 4 3 3 3 3 3 2 1 0 -0 -1 -1 -2 -3 -4 -4 -5 -5 -6 -6 -7 -7 -8 -8 -9 -9 -10
6 6 6 6 6 6 5 5 5 5 5 5 5 4 4 4 4 3 3 3 2 2 1 1 0 -0 -1 -2 -2 -3 -4 -4 -5 -6 -7 -7 -8 -8 -8 -9 -9 -10 -10
6 6 6 5 5 5 5 5 5 5 5 4 4 4 3 3 3 3 2 2 1 1 1 0 -0 -1 -2 -3 -3 -4 -5 -6 -6 -7 -7 -8 -9 -9 -10 -10 -10 -10 -10
6 6 5 5 5 4 4 4 4 4 4 4 3 3 3 3 2 2 2 1 1 1 -0 -1 -2 -2 -3 -4 -4 -5 -6 -6 -7 -8 -9 -9 -10 -10 -11 -11 -11 -10 -10
6 6 5 4 4 4 4 4 4 3 3 3 3 3 2 2 2 1 1 0 0 -0 -1 -2 -2 -3 -4 -5 -5 -6 -7 -8 -8 -9 -9 -10 -10 -10 -11 -11 -11 -11 -11
6 5 4 4 4 3 3 3 2 2 2 2 2 2 2 1 1 0 -0 -0 -1 -1 -2 -3 -3 -4 -5 -6 -7 -7 -8 -9 -9 -9 -10 -10 -10 -11 -11 -11 -12 -12 -12
5 4 4 3 3 3 2 2 2 2 1 1 1 1 1 0 -0 -1 -1 -1 -2 -3 -4 -4 -5 -5 -6 -7 -8 -9 -9 -9 -10 -10 -10 -11 -11 -11 -12 -12 -13 -13 -13
4 3 3 3 3 2 2 1 1 1 1 1 1 0 -0 -1 -1 -2 -2 -3 -3 -4 -5 -6 -6 -7 -8 -9 -9 -9 -10 -10 -10 -11 -11 -11 -12 -12 -12 -13 -13 -14 -14
3 3 3 3 2 2 1 1 1 1 1 1 0 -0 -1 -1 -2 -3 -4 -4 -5 -6 -7 -8 -8 -9 -9 -9 -10 -10 -10 -11 -11 -11 -11 -12 -12 -13 -13 -13 -14 -14 -15
3 3 2 2 1 1 1 1 1 1 1 0 -0 -1 -2 -2 -3 -4 -5 -6 -7 -8 -9 -10 -10 -11 -11 -11 -11 -11 -11 -11 -11 -12 -12 -13 -13 -13 -14 -14 -14 -15 -16

GFSMW_700_temp_042.txt.gz
Temp
6 6 5 5 5 5 5 5 4 2 1 0 0 0 -0 -1 -1 -2 -2 -1 0 1 1 1 1 1 2 1 2 2 2 1 1 1 1 1 1 0 -0 0 -0 -0 -1
5 6 5 5 5 5 5 5 5 4 4 3 2 1 2 2 2 2 0 1 1 2 1 1 2 2 1 2 2 2 2 1 1 1 0 0 0 -0 -0 -1 -1 -1 -2
5 5 6 5 5 5 5 5 5 5 4 5 4 4 3 3 3 3 3 1 2 1 2 1 2 2 2 2 2 2 2 1 1 -0 -0 -1 -1 -1 -1 -1 -2 -3 -2
6 5 5 6 6 5 5 5 5 5 5 5 5 5 4 4 4 3 3 2 2 2 2 2 2 2 1 1 1 1 1 0 -1 -1 -1 -1 -1 -1 -2 -1 -2 -2 -3
6 6 6 6 5 5 5 5 5 4 5 4 4 4 4 3 3 3 3 2 2 2 2 2 1 1 1 1 1 1 1 -0 0 -1 -1 -1 -1 -1 -0 -2 -2 -3 -4
8 7 6 5 6 5 5 5 5 4 4 4 4 4 4 4 3 3 3 2 2 2 2 2 1 1 1 1 1 0 0 0 -0 -1 -1 -1 -2 -2 -2 -2 -3 -2 -2
7 7 7 6 6 6 5 5 5 5 5 4 5 4 4 4 4 4 3 3 3 3 3 1 0 0 1 1 1 1 1 0 -0 -1 -1 -2 -2 -2 -2 -3 -3 -3 -3
8 8 8 7 7 6 6 6 6 6 5 5 5 5 5 4 4 4 4 3 3 2 1 1 0 1 1 1 1 1 1 0 0 -1 -2 -2 -2 -2 -3 -3 -4 -3 -4
8 8 8 7 7 6 6 6 6 6 6 6 6 5 5 5 5 4 4 3 2 0 1 0 0 0 0 -0 1 1 1 0 0 -1 -2 -2 -1 -2 -3 -4 -3 -4 -3
8 8 7 7 7 7 6 6 6 6 6 6 5 5 5 5 5 4 4 3 2 0 1 0 0 1 0 1 1 1 0 0 -1 -1 -3 -3 -2 -2 -4 -4 -3 -4 -4
8 8 8 7 7 6 6 6 6 6 5 5 6 5 4 4 4 3 2 1 1 2 -0 1 1 1 1 1 1 0 0 -0 -1 -0 -1 -2 -2 -3 -3 -4 -4 -4 -5
8 8 8 7 7 6 6 6 5 6 6 5 5 3 3 3 3 2 1 1 2 1 2 2 2 2 2 1 1 1 0 -1 -0 -2 -2 -2 -3 -4 -4 -4 -5 -6 -6
8 8 7 7 7 7 6 6 6 6 6 5 5 3 2 3 3 2 2 2 2 0 2 2 3 2 1 1 1 1 0 -0 -0 -1 -2 -3 -3 -4 -6 -5 -5 -6 -6
7 7 7 7 7 6 6 6 6 6 6 5 5 4 4 4 3 3 3 2 3 2 2 2 2 2 1 1 1 1 0 -0 -1 -4 -3 -3 -5 -5 -6 -6 -6 -6 -6
7 7 7 7 7 7 7 7 6 6 6 5 5 4 4 4 4 4 3 3 3 3 2 2 2 2 1 1 1 1 -0 -1 -2 -4 -4 -5 -5 -7 -8 -6 -6 -7 -7
7 7 7 7 6 6 6 6 6 6 6 6 4 4 4 3 3 3 3 3 3 2 2 2 2 2 1 1 1 0 -1 -2 -4 -5 -6 -6 -6 -6 -5 -7 -7 -8 -8
7 7 7 7 7 6 6 6 6 5 5 5 4 4 4 3 3 3 3 3 3 2 2 2 2 2 1 0 -0 -1 -2 -4 -4 -5 -5 -5 -5 -6 -6 -7 -8 -9 -9
7 7 7 7 6 6 6 6 5 5 5 4 4 4 3 3 3 3 3 2 2 2 2 2 1 1 0 -1 -1 -2 -3 -3 -4 -4 -5 -5 -6 -7 -7 -8 -8 -9 -10
7 7 6 6 6 6 6 5 5 4 4 4 4 4 4 3 3 2 2 2 2 2 2 1 0 -0 -1 -1 -2 -2 -3 -4 -5 -5 -6 -6 -7 -7 -8 -8 -9 -9 -10
7 7 6 6 5 5 5 4 4 4 4 4 4 4 3 3 2 2 2 2 2 1 1 0 -0 -1 -1 -2 -3 -4 -5 -5 -6 -7 -7 -7 -8 -8 -9 -9 -10 -10 -10
6 6 5 5 5 5 4 4 4 4 3 4 4 4 3 2 2 2 2 2 1 1 0 -0 -1 -2 -2 -3 -4 -5 -6 -7 -7 -8 -8 -9 -9 -10 -10 -10 -11 -11 -11
5 6 6 6 5 5 4 4 4 3 3 3 3 2 2 2 2 2 2 1 0 -0 -1 -1 -2 -2 -3 -4 -5 -6 -7 -8 -8 -9 -9 -10 -10 -10 -10 -11 -11 -11 -12
5 5 5 5 5 4 3 3 3 3 2 2 2 1 1 2 2 1 1 -0 -1 -1 -2 -2 -2 -3 -4 -5 -6 -7 -8 -9 -9 -9 -10 -10 -10 -11 -11 -11 -12 -12 -12
5 5 4 4 4 3 3 3 2 2 1 1 1 1 1 1 1 -0 -1 -1 -2 -2 -3 -3 -4 -5 -6 -7 -8 -9 -9 -10 -10 -11 -10 -11 -11 -11 -12 -12 -12 -13 -13
4 4 4 4 3 2 2 2 2 1 1 1 1 0 0 -0 -1 -1 -2 -3 -3 -4 -4 -5 -6 -7 -9 -10 -11 -11 -11 -12 -11 -11 -11 -12 -12 -12 -12 -13 -13 -14 -14
3 3 3 3 2 2 2 2 2 1 0 0 0 -0 -1 -2 -2 -3 -4 -5 -5 -6 -7 -9 -10 -11 -12 -12 -12 -12 -13 -12 -13 -12 -13 -13 -13 -13 -13 -14 -14 -14 -15

GFSMW_700_temp_045.txt.gz
Temp
6 6 6 5 5 5 4 4 3 2 2 2 1 1 0 -0 -2 -2 -2 -2 -1 -1 -0 0 1 1 1 1 1 2 2 1 1 1 1 1 0 0 0 0 -0 -0 -1
6 6 6 6 5 5 5 5 4 3 1 1 1 0 0 -1 -1 -2 -2 -1 -2 -1 -0 0 1 1 1 1 1 1 1 1 1 1 1 0 1 1 0 -1 -2 -2 -2
6 6 6 5 6 5 5 5 5 5 3 1 1 0 -0 -1 -1 -1 -1 -1 -1 -0 -0 0 1 1 1 1 1 1 1 1 1 0 -1 -0 -0 -1 -1 -2 -1 -2 -2
7 7 6 6 5 5 5 5 5 5 5 4 4 3 2 3 1 0 1 1 -0 -0 -0 0 1 1 1 1 1 1 1 0 1 -0 -0 -1 -1 -1 -2 -2 -1 -2 -2
7 7 7 6 5 5 5 5 5 5 5 4 5 5 4 4 4 3 3 2 2 1 1 1 1 1 1 1 1 0 0 0 0 -0 -1 -1 -2 -2 -2 -1 -2 -3 -3
7 7 6 6 6 6 5 5 5 5 5 5 5 5 5 4 4 3 3 2 2 1 1 1 2 1 1 1 1 0 0 0 0 -0 -0 -1 -2 -1 -2 -2 -2 -3 -3
8 7 6 7 7 6 6 6 5 5 5 5 5 5 4 4 4 3 3 3 3 2 2 2 2 2 1 0 0 -0 0 0 0 -0 -0 -1 -1 -2 -1 -3 -2 -2 -3
8 8 7 6 6 6 6 6 6 5 6 5 5 5 5 4 4 4 3 3 3 3 2 1 1 1 -0 1 -0 0 0 -0 -0 -0 -0 -1 -2 -1 -2 -2 -2 -2 -3
8 8 7 7 6 6 6 6 6 6 6 5 5 5 5 4 4 4 3 3 3 3 2 2 1 -0 0 -0 0 -0 -0 0 -0 0 -0 -0 -1 -1 -2 -2 -2 -3 -3
8 8 8 7 7 7 6 6 6 6 6 5 5 5 5 4 4 3 3 3 2 1 1 0 1 -0 -0 -0 -0 0 0 0 1 1 -0 -1 -1 -1 -2 -2 -2 -2 -3
8 8 8 7 7 7 7 6 6 6 5 5 5 4 4 3 3 2 1 1 1 1 1 1 0 0 -0 -0 1 1 1 1 1 0 -1 -0 -1 -2 -2 -2 -3 -3 -3
8 8 8 8 7 7 7 6 6 6 6 5 5 5 4 1 1 0 1 1 1 0 1 0 0 1 2 1 1 1 1 1 0 -1 -1 -1 -1 -2 -3 -4 -4 -4 -6
8 7 7 7 8 7 7 6 6 6 6 5 5 5 5 4 4 3 2 2 2 2 1 1 2 1 1 1 1 1 1 1 -0 -1 -0 -1 -2 -2 -2 -4 -5 -5 -6
8 8 7 7 7 7 7 7 7 6 6 6 5 5 5 4 4 3 3 2 2 2 2 1 1 2 1 2 1 1 1 1 -0 -1 -1 -2 -2 -2 -4 -4 -5 -6 -5
7 7 7 7 7 7 7 7 7 6 6 6 6 6 5 4 4 3 3 2 3 2 2 2 2 2 2 1 1 1 1 0 -0 -0 -1 -2 -3 -4 -5 -5 -5 -5 -7
7 7 7 7 7 7 7 7 7 6 6 6 5 5 5 4 4 3 3 3 3 2 2 2 2 1 1 1 1 1 0 -0 -1 -1 -2 -2 -4 -5 -3 -5 -5 -7 -6
7 7 7 7 7 7 7 6 6 6 6 6 5 5 4 4 3 3 3 3 3 2 2 2 2 1 1 1 1 0 -0 -1 -1 -1 -2 -2 -3 -4 -5 -6 -6 -7 -7
7 7 7 7 7 7 7 6 6 6 6 5 5 4 4 3 3 3 3 2 2 2 2 2 2 2 1 1 0 -0 -1 -1 -1 -2 -3 -4 -4 -5 -6 -6 -7 -7 -8
7 7 7 7 7 7 7 6 6 5 5 4 4 4 3 3 3 3 3 3 2 2 2 2 2 1 1 0 -0 -1 -1 -2 -3 -3 -4 -5 -5 -6 -7 -7 -8 -9 -9
7 7 7 7 7 7 6 6 5 5 4 4 4 3 3 3 3 2 2 2 1 2 2 1 1 0 -0 -1 -1 -2 -3 -3 -4 -5 -6 -6 -6 -7 -8 -8 -9 -9 -10
7 7 7 7 7 6 6 5 5 4 4 3 3 3 3 2 2 2 1 1 1 1 1 0 -0 -1 -1 -2 -3 -3 -4 -5 -6 -6 -7 -7 -8 -9 -9 -10 -10 -10 -11
7 7 6 7 6 5 5 5 4 4 3 3 2 2 2 2 1 1 1 1 1 0 -0 -1 -2 -2 -3 -3 -4 -5 -6 -6 -7 -8 -8 -9 -10 -10 -10 -11 -11 -11 -11
6 6 6 5 5 5 5 4 4 3 3 2 2 2 2 1 1 1 1 0 -0 -1 -1 -2 -2 -3 -4 -5 -6 -6 -7 -8 -9 -9 -10 -10 -11 -12 -12 -12 -12 -12 -12
5 5 5 5 4 4 4 3 2 2 2 2 1 1 1 0 0 -0 -0 -1 -1 -2 -2 -3 -3 -4 -5 -6 -7 -8 -9 -10 -10 -11 -12 -12 -12 -13 -13 -13 -13 -13 -13
4 4 4 3 3 3 3 2 2 1 1 1 1 0 -0 -1 -1 -1 -2 -2 -2 -3 -4 -4 -5 -6 -7 -8 -9 -11 -12 -12 -12 -12 -12 -12 -13 -13 -14 -14 -14 -14 -15
2 2 3 2 2 2 2 1 1 1 0 0 -0 -1 -2 -2 -2 -2 -3 -3 -4 -5 -6 -6 -7 -8 -9 -11 -13 -13 -12 -11 -12 -12 -13 -13 -13 -13 -14 -14 -14 -14 -15

GFSMW_700_temp_048.txt.gz
Temp
6 6 6 5 5 5 3 2 2 2 1 2 1 1 0 -1 -2 -1 -2 -2 -2 -2 -1 -1 -0 0 0 0 0 0 0 1 1 1 1 1 1 1 1 0 -1 -1 -1
6 6 6 5 5 4 4 4 2 1 2 1 1 1 0 0 -1 -1 -1 -2 -2 -2 -1 -1 -1 -1 0 0 0 1 1 1 1 1 1 1 -0 -1 -1 -1 -1 -1 -2
6 6 6 6 5 5 4 4 4 3 1 1 1 0 0 -0 -0 -1 -2 -1 -2 -2 -2 -1 -1 -0 0 0 1 1 1 1 1 1 1 0 -0 -1 -1 -1 -2 -2 -2
6 6 6 6 5 5 5 5 5 4 3 2 1 1 0 0 -0 -1 -1 -1 -1 -1 -2 -1 -1 -1 -0 0 1 1 1 1 1 0 0 -0 -1 -1 -1 -1 -2 -3 -2
7 6 6 5 5 5 5 5 5 5 5 5 5 4 4 2 0 -1 -1 -2 -2 -1 -1 -1 -0 -1 -0 0 1 1 1 1 0 -0 -0 -0 -0 -1 -1 -2 -2 -2 -3
7 7 6 6 6 6 5 5 5 5 5 5 5 5 5 4 3 3 2 2 1 1 2 1 1 0 0 1 1 1 1 0 -0 -0 -0 -0 -0 -1 -0 -2 -2 -2 -2
8 7 7 7 6 6 6 5 5 5 5 5 5 5 4 4 4 3 3 3 3 3 3 2 2 1 1 1 1 0 0 0 -0 -0 -0 -0 -1 -1 -1 -1 -1 -2 -2
8 7 7 7 7 7 6 6 6 5 5 5 5 5 5 4 4 4 4 3 3 3 2 2 1 1 0 -0 -0 -0 -0 0 -0 -0 -0 -1 -1 -1 -1 -2 -1 -1 -2
8 8 7 7 7 7 7 6 6 6 5 5 5 5 5 5 4 4 4 3 3 3 2 2 1 0 -1 0 -0 -0 -1 -0 -0 -0 -1 -1 -0 -1 -1 -1 -1 -2 -2
8 8 8 7 7 7 7 6 6 6 6 5 5 5 5 5 4 4 4 3 3 2 2 2 1 -0 -1 -1 -1 -0 -0 -0 -1 -1 -1 -1 -0 -0 -1 -1 -1 -2 -3
8 8 8 8 7 7 7 7 6 6 6 6 5 5 5 4 4 3 3 2 1 1 1 1 1 -0 -0 -0 -0 -0 -0 -0 -1 -1 -0 -0 -0 -1 -1 -1 -1 -2 -2
8 8 8 8 7 7 7 7 7 6 6 6 5 5 5 4 4 4 3 1 1 0 -0 0 -1 -0 -1 -0 -0 -1 -0 0 0 1 0 -0 -1 -1 -1 -1 -2 -2 -2
8 8 8 8 7 7 7 7 7 7 6 6 6 5 5 5 4 4 3 2 2 1 1 -0 0 1 -0 0 0 -1 -0 0 0 1 0 -0 -1 -1 -2 -1 -2 -2 -2
7 7 8 8 8 7 7 7 7 7 6 6 6 6 5 5 5 4 3 2 3 2 1 1 0 1 1 0 -0 0 1 1 1 1 0 -1 -1 -2 -2 -3 -2 -2 -4
7 8 7 7 7 7 7 7 7 6 6 6 6 6 5 5 5 4 4 3 3 2 2 2 2 1 1 1 1 1 1 1 1 1 0 -1 -1 -1 -1 -2 -3 -3 -5
7 7 7 7 7 7 7 7 7 6 6 6 6 6 6 5 5 4 4 4 3 3 2 2 2 2 2 1 1 1 1 1 1 0 -1 -0 -1 -1 -1 -3 -3 -6 -5
7 7 7 7 7 7 7 7 6 6 6 6 6 6 5 5 4 4 4 3 3 3 2 2 2 2 2 1 1 1 1 0 -0 0 -1 -1 -1 -2 -2 -3 -5 -5 -5
7 7 7 7 7 7 7 7 7 6 6 6 6 5 5 5 4 4 3 3 3 2 2 2 2 1 1 1 1 1 0 -0 -0 -1 -1 -1 -2 -3 -4 -5 -4 -6 -7
7 7 7 7 7 7 7 7 6 6 6 6 5 5 4 4 3 3 3 2 2 2 2 1 1 1 1 1 1 1 0 -0 -1 -2 -2 -3 -3 -4 -5 -5 -7 -8 -8
6 7 7 7 7 7 7 7 6 6 6 6 5 4 4 3 3 3 2 2 2 2 1 1 1 1 0 1 1 -0 -1 -1 -2 -2 -3 -4 -4 -5 -5 -7 -8 -8 -9
6 6 7 7 7 7 7 7 6 6 6 5 4 4 3 3 2 3 2 2 2 2 1 1 0 0 0 -0 -1 -1 -2 -2 -3 -3 -4 -5 -5 -7 -7 -8 -9 -10 -10
6 6 6 6 7 7 7 6 6 6 5 4 4 3 2 2 2 2 2 1 0 0 0 0 0 -0 -1 -1 -2 -2 -3 -4 -4 -5 -6 -6 -7 -8 -9 -10 -10 -12 -12
6 6 6 6 6 6 6 5 5 4 4 3 3 2 2 2 1 1 0 -0 -0 -0 -0 -0 -1 -1 -1 -2 -3 -3 -4 -5 -6 -6 -7 -8 -9 -10 -11 -12 -12 -13 -13
5 5 6 5 5 5 5 4 4 3 3 2 2 1 1 1 1 -0 -1 -1 -1 -1 -1 -1 -2 -2 -3 -3 -4 -5 -6 -7 -8 -9 -10 -11 -12 -12 -12 -12 -13 -13 -13
5 5 4 4 4 4 3 3 3 2 1 1 1 0 0 -0 -1 -1 -2 -2 -2 -2 -2 -3 -4 -4 -5 -6 -6 -7 -8 -10 -11 -12 -12 -11 -12 -12 -12 -13 -13 -13 -13
4 4 4 3 3 3 2 2 1 1 0 -0 -0 -1 -1 -2 -2 -3 -3 -3 -4 -4 -4 -5 -5 -6 -6 -7 -8 -9 -9 -10 -11 -11 -12 -12 -13 -13 -13 -13 -14 -14 -15

GFSMW_700_temp_054.txt.gz
Temp
6 6 6 5 5 5 5 3 2 2 2 1 1 1 0 0 -0 -0 -0 -1 -1 -1 -1 -0 -0 0 0 -0 -1 -0 0 0 0 0 0 0 0 1 1 0 -0 -0 -0
6 6 6 6 5 5 5 5 3 2 1 1 1 1 1 1 0 -0 -1 -1 -1 -1 -1 -0 -0 -0 -0 -1 -1 -1 -1 -0 -0 -0 0 0 1 1 0 -0 -0 -0 -0
7 6 6 6 6 5 5 5 4 2 2 1 1 1 1 0 0 0 -1 -1 -1 -2 -1 -1 -1 -0 -1 -1 -1 -1 -1 -0 -0 -0 0 1 1 -1 0 -0 -0 -0 -0
7 7 7 6 5 5 5 5 4 3 2 2 1 1 1 0 1 0 -0 -1 -1 -2 -2 -1 -1 -1 -1 -1 -1 -1 -1 -1 -0 -0 -0 0 0 -1 -1 0 -0 -1 -1
8 7 7 6 6 5 5 5 5 4 3 2 2 2 1 1 1 0 -0 -1 -1 -2 -2 -2 -2 -1 -1 -1 -1 -1 -1 -1 -1 -0 -0 -0 0 0 0 0 0 0 -1
8 7 7 7 6 6 6 5 5 5 5 4 2 2 2 1 1 0 0 -0 -1 -1 -2 -2 -2 -2 -1 -1 -1 -1 -1 -1 -1 -1 -0 -0 -0 -0 0 0 0 0 0
8 7 7 7 7 6 6 6 5 5 5 5 5 4 4 2 1 0 0 -0 -0 -1 -1 -1 -1 -1 -1 -1 -2 -1 -1 -1 -1 -1 -1 -1 -1 -1 -1 -0 0 -0 -0
7 7 7 7 7 7 6 6 6 6 5 5 5 5 4 4 4 2 2 1 0 -0 -0 -1 -1 -1 -1 -2 -1 -1 -1 -1 -1 -1 -1 -1 -1 -1 -1 -1 -0 -1 -1
7 8 8 7 7 7 7 6 6 6 6 5 6 5 5 5 5 4 4 3 3 3 2 1 1 0 -0 -0 -0 -1 -0 -0 -0 -0 -0 -1 -1 -1 -1 -1 -1 -1 -1
7 8 8 8 8 7 7 6 6 6 6 5 6 6 5 5 5 5 5 5 4 4 4 4 3 3 3 2 1 1 1 1 1 1 0 -0 -1 -0 -1 -1 -1 -1 -2
7 7 8 8 8 7 7 6 6 6 6 6 6 6 6 5 5 5 5 4 4 4 4 4 3 3 2 2 1 1 1 1 1 1 0 -0 -1 -1 -1 -1 -1 -1 -1
7 7 8 8 8 7 7 7 6 6 6 6 6 6 5 5 5 5 5 4 5 4 5 4 3 4 3 1 1 1 1 1 1 0 0 -0 -1 -1 -1 -1 -2 -2 -2
7 7 7 7 7 7 7 7 7 7 6 6 6 6 5 6 6 5 5 5 5 4 4 3 3 3 2 1 1 0 -1 -1 -0 -0 -1 -0 -1 -1 -1 -2 -2 -1 -0
7 7 7 7 7 7 7 7 7 7 7 6 6 6 6 6 5 5 5 5 4 4 3 3 2 2 2 2 1 1 -0 -1 -0 -0 -0 -0 0 -0 -0 -1 -1 -1 -1
6 7 7 7 7 7 7 7 7 7 7 7 7 7 6 6 5 5 5 5 5 4 3 3 3 2 2 1 1 1 1 -0 -0 -0 0 1 1 -1 -0 -1 -1 -1 -1
6 6 7 7 7 7 7 7 7 7 7 7 7 7 7 6 6 6 6 5 5 5 4 4 3 3 2 1 1 1 0 0 1 1 1 1 0 -0 -1 -0 -1 -0 -1
6 6 7 7 7 7 7 7 7 7 7 7 7 7 6 6 6 6 6 6 5 5 5 4 4 4 3 3 2 1 1 1 0 1 1 1 1 0 -0 -1 -1 -1 -2
5 6 6 7 7 7 7 7 7 7 7 7 7 7 6 6 6 6 6 6 5 5 5 4 4 3 3 2 2 2 1 1 1 1 1 1 0 -0 -1 -0 -1 -2 -2
4 5 6 6 7 7 7 7 7 7 7 7 7 6 6 6 6 6 5 5 5 5 5 4 4 3 3 2 2 2 1 1 1 1 1 1 -0 -1 -1 -2 -2 -2 -3
2 4 5 6 6 6 6 6 7 7 7 7 6 6 6 6 6 5 5 4 4 4 4 4 3 3 3 2 2 2 1 1 1 1 -1 -1 -1 -1 -2 -2 -2 -3 -5
2 2 3 5 5 6 6 6 6 6 6 6 7 6 6 6 6 5 5 4 3 3 3 3 3 3 2 2 2 2 1 -0 -0 -0 -1 -1 -2 -4 -3 -3 -4 -5 -6
2 2 3 3 5 5 6 6 6 6 7 7 7 7 6 6 6 5 4 3 3 3 3 3 3 3 2 2 1 0 -0 -0 -1 -1 -2 -4 -4 -4 -4 -5 -6 -6 -7
1 1 2 3 4 5 5 6 6 6 6 6 6 6 6 6 5 4 3 2 2 1 2 2 2 2 2 0 -1 -1 -1 -3 -3 -3 -5 -4 -5 -6 -6 -7 -7 -7 -8
-0 0 1 2 4 4 5 5 5 6 6 6 6 6 6 5 4 3 3 2 2 1 1 1 1 -1 -1 -1 -2 -3 -4 -5 -4 -4 -4 -5 -6 -7 -7 -7 -8 -9 -10
-2 -1 -1 0 2 3 4 5 5 5 5 5 5 5 4 3 3 2 2 1 1 -0 -1 -2 -2 -2 -2 -3 -4 -5 -6 -6 -5 -6 -6 -7 -7 -8 -9 -10 -10 -11 -11
-2 -3 -2 -1 -1 0 2 2 3 3 3 3 2 3 3 3 1 0 -0 -1 -2 -2 -2 -3 -3 -3 -4 -5 -5 -6 -6 -6 -7 -8 -9 -9 -10 -10 -11 -11 -12 -12 -13

GFSMW_700_temp_060.txt.gz
Temp
6 6 7 6 7 6 6 6 5 4 3 3 3 3 2 2 2 2 1 1 -0 -0 -1 -1 -0 -0 0 1 1 1 1 1 1 0 1 0 0 0 1 1 1 1 1
6 6 8 6 7 7 6 6 6 5 4 3 3 5 2 1 1 1 1 1 -1 -1 -1 -2 -0 -0 -0 0 1 -1 1 1 1 1 0 0 0 0 1 1 1 1 1
7 6 8 7 7 7 6 6 6 4 3 2 3 3 1 1 1 0 -0 -0 -1 -1 -1 -1 -3 -2 -1 -1 -1 -2 0 1 1 -0 -0 -0 0 -0 -0 -0 0 0 0
8 7 8 8 7 7 7 6 6 5 4 3 3 3 2 2 2 1 1 0 -0 -1 -1 -2 -2 -2 -1 -1 -1 -1 0 0 0 -0 -0 -0 -0 -0 -1 -0 -0 -0 0
8 7 7 8 7 7 7 7 6 6 5 3 3 2 2 2 1 1 1 -0 -0 -0 -1 -1 -2 -2 -2 -1 -1 -1 -1 -0 -0 -0 -0 -0 -0 -0 -0 -0 0 -0 0
8 7 6 8 8 7 7 7 6 6 6 4 3 2 2 2 1 0 0 0 -0 -0 -1 -2 -1 -1 -1 -1 -0 -1 -0 -1 -0 -1 -0 -0 -0 -0 -0 -0 -0 -0 -0
8 7 6 7 8 8 7 7 7 6 6 6 5 3 3 2 2 1 1 1 1 -0 -1 -1 -1 -1 -1 -0 -1 -0 -0 -1 -1 -1 -1 -1 -0 -0 -0 -0 -0 -0 -0
8 7 7 6 7 8 7 7 7 7 6 6 6 5 3 2 1 1 1 0 0 1 1 0 -0 -1 -0 0 -0 -0 -0 -0 -0 -1 -1 -1 -1 -1 -0 -0 -1 -0 0
8 7 7 6 7 8 8 7 7 7 7 6 6 6 6 5 4 2 1 1 -0 0 1 1 0 0 0 0 0 -0 -0 -0 -1 -1 -1 -1 -0 -1 -1 -0 0 -0 -0
8 7 7 6 6 7 8 7 7 7 7 6 6 6 6 6 5 5 5 4 2 1 1 0 0 0 0 1 0 0 0 -0 -1 -1 -0 -0 -0 -0 -0 -0 -0 -0 -0
7 7 7 7 6 6 7 8 7 7 7 7 6 6 6 6 6 6 6 5 5 4 3 2 1 1 1 1 -0 0 -1 -1 -0 -0 -0 0 0 -0 -0 -0 -0 -0 -0
7 7 7 7 6 6 6 7 7 7 7 7 6 6 6 6 6 6 6 5 5 5 5 4 4 3 3 2 2 2 2 1 1 1 0 0 0 0 0 0 0 -1 -0
6 6 6 6 6 5 6 6 7 7 7 7 7 7 6 6 6 6 6 6 5 5 5 5 5 5 4 4 4 3 3 2 2 2 2 1 1 0 0 0 -1 -1 -1
5 5 6 6 5 5 5 6 6 7 6 6 6 7 6 6 6 6 6 6 6 5 5 5 5 4 4 4 4 3 3 3 3 2 2 2 1 1 1 -0 -0 -0 -1
3 4 6 6 6 5 5 4 4 5 7 6 6 7 6 6 6 6 6 6 6 6 5 5 5 5 5 4 4 4 3 3 3 2 2 1 1 1 -0 -0 -0 0 -0
2 4 5 5 5 6 5 5 4 4 4 6 7 7 6 6 7 6 6 6 6 6 5 5 5 5 5 5 4 4 3 3 2 2 2 1 1 0 -0 -1 0 -0 -1
3 4 4 4 5 5 5 5 5 5 3 3 6 7 6 6 7 7 6 6 6 6 5 5 5 5 5 5 4 4 4 3 3 2 2 2 1 0 0 -0 -0 -0 -1
2 2 3 3 3 4 5 4 4 4 4 3 4 6 6 6 6 7 7 6 6 6 6 6 5 5 5 5 5 5 4 4 3 2 2 2 2 1 0 -0 0 0 0
1 2 2 2 3 3 3 4 4 4 4 4 3 3 5 6 6 6 7 7 6 6 6 6 6 5 5 5 5 5 4 4 4 3 3 2 2 1 -0 0 0 -0 0
1 2 2 2 3 3 3 3 4 3 3 4 4 4 3 3 6 6 6 6 6 6 6 6 6 6 6 5 5 5 4 4 3 3 2 1 0 -0 -0 -0 -0 0 -0
1 1 1 2 3 3 3 3 4 4 3 3 3 4 4 4 5 6 6 6 6 6 6 6 6 6 6 5 4 4 3 3 3 2 1 -1 -0 0 0 0 -0 -1 -1
-1 -1 0 1 1 2 3 3 3 3 3 3 3 3 4 4 4 4 5 5 5 6 6 6 5 5 4 3 3 2 2 2 1 2 -0 0 -0 -1 -1 -0 -1 -1 -3
-2 -1 -1 -0 -0 0 1 1 3 3 2 2 2 3 3 4 4 5 4 4 4 4 3 3 3 3 2 2 1 2 2 0 0 -0 -0 -1 -1 -1 -1 -1 -3 -4 -5
-2 -2 -2 -1 -1 -1 -1 0 1 1 2 1 1 2 3 3 2 3 3 3 3 2 1 1 1 1 0 0 0 0 0 -0 -1 -1 -2 -2 -2 -3 -4 -5 -5 -6 -6
-3 -2 -2 -2 -2 -2 -1 -1 -1 -1 -1 -1 -0 2 3 2 1 1 1 3 2 0 0 1 1 1 0 -0 0 0 -2 -1 -2 -3 -4 -4 -5 -6 -6 -7 -7 -7 -8
-3 -3 -2 -2 -2 -2 -2 -2 -2 -2 -2 -2 -1 -1 -1 -1 -1 -1 -1 -0 0 -0 -0 -0 0 1 0 -3 -1 -2 -4 -5 -6 -7 -7 -7 -7 -8 -8 -8 -8 -8 -9

GFSMW_700_temp_063.txt.gz
Temp
7 7 8 7 7 7 7 6 6 5 3 2 2 2 3 2 1 1 2 1 1 1 1 0 0 1 -0 1 1 2 1 2 1 1 1 0 0 0 1 2 2 2 2
8 8 8 7 8 7 7 6 6 6 4 3 2 2 2 2 1 2 2 1 1 1 1 1 0 0 -0 -0 -1 1 2 1 1 1 1 0 1 1 1 1 1 1 1
8 8 7 7 8 7 7 6 6 6 5 4 3 3 4 3 2 2 2 1 1 1 1 0 0 -0 0 -0 -1 1 1 -0 -1 0 1 1 1 1 0 0 0 0 0
8 8 8 8 8 7 7 7 7 6 6 4 3 4 4 5 1 2 2 1 1 1 -0 0 0 0 -0 -2 0 0 1 -1 -2 -1 -0 0 0 0 0 0 0 0 0
9 8 8 8 8 8 7 7 7 6 6 5 4 4 4 4 1 1 1 0 0 0 -1 1 0 -1 -2 -1 0 1 1 -1 -1 -0 -0 0 -0 -0 0 -0 -1 -0 0
9 8 8 8 8 8 7 7 7 7 7 6 5 4 3 3 2 1 1 1 0 -0 -0 0 -0 -1 -1 -1 -0 -0 -1 -1 -1 -0 -0 -0 -0 -0 -0 -0 -0 0 -0
9 8 8 8 7 8 7 7 7 7 7 7 6 4 3 3 3 2 2 0 -0 -0 -0 -1 -1 -1 -1 -0 -1 -1 -1 -1 -1 -1 -0 -0 -0 -1 -1 -1 -1 -0 -0
9 8 8 7 8 8 7 7 7 7 7 7 7 6 4 3 3 2 2 2 0 -0 -0 -0 -1 -1 -2 -1 -2 -2 -1 -1 -1 -1 -1 -1 -1 -1 -1 -1 -1 -1 -1
8 8 8 7 7 7 8 7 7 7 7 7 7 7 6 5 4 3 2 1 1 -0 1 -0 -0 -1 -1 -1 -1 -2 -1 -1 -1 -1 -1 -1 -1 -1 -1 -1 -1 -1 -1
8 8 8 7 7 7 7 7 7 7 7 7 7 7 6 6 5 5 4 4 2 2 1 0 1 1 0 -0 -1 -1 -1 -2 -0 -0 -0 -1 -1 -1 -1 -1 -1 -1 -1
7 7 7 7 6 6 7 7 7 6 7 7 7 7 6 6 6 6 5 5 4 4 4 4 2 1 1 0 0 0 0 -0 -0 0 0 0 -0 -0 -1 -1 -1 -1 -1
7 7 6 5 6 6 6 6 6 6 6 6 6 6 6 6 6 6 6 6 6 5 6 5 4 4 3 3 2 2 1 1 1 1 0 1 0 -0 0 -0 0 -0 0
6 6 6 6 5 4 4 5 5 5 5 6 6 6 6 6 6 6 6 5 5 5 5 5 5 5 5 4 4 3 3 3 3 3 3 3 2 2 2 2 1 1 0
6 6 6 5 5 5 5 4 4 4 4 5 5 6 6 6 6 6 6 6 5 5 5 5 5 5 4 4 4 4 4 4 4 3 3 3 2 2 2 1 1 0 -0
5 6 6 5 5 5 4 4 5 5 5 4 4 5 5 6 5 5 6 5 5 5 5 5 5 5 5 5 5 4 4 4 3 3 3 3 2 2 2 1 1 0 -0
5 6 6 5 5 5 4 3 3 3 5 5 6 5 5 5 6 6 5 5 5 5 5 5 5 5 5 5 5 4 4 4 4 3 3 3 2 2 2 1 1 0 -0
5 5 4 4 4 4 4 4 4 3 2 3 4 5 4 3 5 6 6 6 5 5 5 5 5 5 5 5 4 4 3 3 4 3 3 3 3 2 1 1 1 0 -0
3 2 2 2 2 3 3 4 4 4 3 3 2 3 4 4 3 4 5 6 6 6 6 5 5 5 5 5 4 3 3 3 3 3 3 3 3 2 2 1 -0 -0 -0
1 1 1 2 2 2 3 3 3 3 4 4 4 3 3 3 4 4 4 5 4 5 6 6 5 5 6 5 5 4 3 2 2 3 3 3 2 2 2 1 -0 -1 -1
0 1 1 1 2 2 2 2 2 3 3 3 3 4 4 3 3 3 4 5 4 4 4 5 6 6 6 6 5 5 4 4 4 3 2 2 2 1 0 -1 -1 -1 -1
0 0 1 1 2 2 2 2 3 3 3 3 3 3 3 3 4 4 3 4 4 3 3 4 5 5 5 5 5 4 4 3 2 2 2 2 1 0 -1 -1 -1 -0 -0
-0 -0 0 0 1 1 1 2 2 2 3 3 3 3 3 3 3 3 3 3 4 3 3 3 3 4 4 3 2 1 1 1 1 1 1 0 0 0 0 -0 -1 -1 -0
-1 -1 -1 -1 -0 -0 -0 0 1 1 2 2 3 4 4 3 2 3 2 3 2 2 3 3 2 3 2 2 1 2 1 1 1 1 -0 0 0 0 -0 -0 -1 -1 -1
-1 -2 -1 -1 -1 -1 -1 -1 -0 -0 0 1 1 2 2 3 3 1 1 2 2 1 1 1 1 1 1 1 0 1 0 -0 0 0 0 -1 -1 0 -3 -4 -4 -3 -4
-2 -3 -3 -3 -2 -2 -2 -2 -1 -1 -1 -1 -0 -0 0 0 0 -1 0 1 0 -1 -0 0 0 1 -0 -1 1 0 0 0 -1 -1 -1 -2 -8 -5 -6 -7 -8 -8 -7
-3 -3 -3 -3 -3 -3 -2 -2 -2 -2 -1 -2 -2 -2 -1 -1 -2 -2 -2 -2 -2 -2 -1 -0 -0 -1 -2 -1 -1 -2 -3 -4 -5 -7 -7 -7 -7 -8 -8 -8 -7 -7 -8

GFSMW_700_temp_069.txt.gz
Temp
9 9 8 7 7 7 7 7 6 6 6 6 5 5 4 3 3 3 2 1 1 2 2 2 2 1 1 1 0 1 1 2 1 1 1 1 1 1 1 1 1 1 1
8 9 8 8 7 7 7 7 6 6 6 6 4 4 3 3 3 2 2 2 2 1 1 2 1 1 1 1 1 1 1 1 1 1 1 1 1 0 1 0 0 0 0
9 9 8 8 8 7 7 7 6 6 6 5 5 3 3 2 2 2 2 1 1 1 1 1 1 1 1 -1 -1 1 1 1 1 1 1 1 1 1 -0 0 0 0 0
8 8 8 8 8 7 7 7 6 6 6 6 5 4 3 4 3 2 1 2 1 1 2 1 1 1 -0 -1 -1 -0 0 -0 0 0 1 0 -0 -1 -0 0 0 0 0
9 9 9 8 8 7 7 7 7 6 6 6 6 5 4 3 3 2 1 1 2 1 1 1 1 0 0 -1 -1 -2 -0 -0 0 0 0 -0 -1 -2 -2 -1 -0 0 0
9 9 9 8 8 7 7 6 7 7 6 6 6 5 4 4 3 4 3 1 2 1 1 1 0 1 0 -1 -1 -2 -1 -1 -0 -0 -0 -1 -1 -2 -1 -0 -1 -0 -0
9 9 9 9 8 7 7 6 7 7 7 6 5 5 4 4 4 4 2 2 3 2 1 1 1 0 1 -1 -1 -1 -1 -1 -1 -1 -1 -2 -2 -2 -1 -1 -1 -1 -1
9 9 10 8 8 7 6 6 7 7 7 6 6 5 5 4 4 3 3 1 2 1 1 1 1 0 -0 -0 -1 -0 -1 -0 -1 -2 -2 -2 -2 -2 -1 -1 -1 -1 -1
10 10 10 8 8 7 6 6 6 7 7 6 6 6 5 5 4 3 3 2 2 1 1 -0 -0 0 0 0 -0 -1 -0 -0 -1 -1 -2 -3 -2 -2 -1 -1 -1 -1 -1
10 10 9 8 8 6 6 5 5 5 5 6 6 5 5 5 5 4 3 2 1 1 0 -0 -0 -0 -0 -0 0 -0 -0 -1 -1 -1 -2 -2 -1 -2 -2 -1 -2 -2 -1
10 9 8 7 7 6 5 5 4 4 4 5 5 5 5 5 5 4 4 3 2 1 1 -1 -0 0 -0 -1 -1 -1 -1 -1 -1 -1 -2 -2 -1 -1 -2 -1 -2 -2 -1
9 8 7 7 6 5 5 5 4 4 4 4 4 5 5 5 4 4 4 4 3 2 1 0 -0 -1 -0 0 -1 -1 -1 -2 -2 -2 -1 -1 -2 -1 -1 -1 -1 -1 -1
8 8 7 7 6 6 5 5 5 4 5 5 5 5 5 5 4 4 4 3 3 3 2 2 2 1 1 -0 -1 -1 -1 -2 -1 -1 -1 -1 -1 -1 -1 -1 -1 -1 -1
6 6 7 6 6 6 6 5 5 5 5 5 4 5 4 5 5 5 5 4 4 3 3 3 2 2 2 2 2 2 2 1 1 1 1 1 1 1 1 0 -0 -0 -1
1 4 5 5 5 5 5 5 5 5 5 5 5 5 5 5 5 5 5 5 5 4 4 4 4 3 3 3 3 3 3 3 3 3 3 3 3 3 2 2 2 1 1
0 0 1 2 3 3 4 4 4 5 5 5 5 5 5 5 5 4 4 5 4 4 4 4 4 4 4 4 4 4 4 3 3 4 4 4 4 4 3 3 2 2 1
-1 -1 -1 1 1 2 3 3 3 3 4 4 4 5 5 5 5 5 5 4 4 4 4 4 4 5 5 4 4 4 4 4 3 3 3 3 3 4 3 3 3 2 1
-2 -1 -0 -1 0 1 2 2 3 2 3 3 3 3 3 3 4 4 4 4 4 4 4 4 4 4 4 4 4 4 4 3 3 3 4 4 4 4 3 3 3 3 2
-2 -2 -1 -0 0 1 2 2 2 2 2 2 2 2 2 2 3 3 3 4 4 5 5 5 5 4 4 4 4 3 3 3 4 3 3 3 4 4 3 3 3 3 3
-2 -2 -1 -0 0 1 1 1 1 2 2 2 2 2 3 3 3 2 2 3 3 3 4 4 4 5 5 5 5 4 4 4 3 3 3 3 3 3 3 2 2 2 1
-2 -1 -1 -0 -0 -0 0 0 1 1 1 2 2 2 3 3 3 4 4 3 3 3 3 3 3 4 4 3 4 4 4 3 2 2 1 2 3 2 1 1 2 1 1
-2 -1 -1 -0 -0 0 0 0 0 1 1 1 1 2 2 2 2 2 3 3 3 3 3 3 3 3 3 4 4 3 2 2 1 1 0 1 1 1 2 1 1 0 0
-2 -1 -1 -1 -0 -0 -0 0 0 0 1 1 1 1 0 1 1 1 1 1 1 1 2 2 2 2 2 2 2 2 2 1 -1 0 0 0 1 1 1 1 -0 0 0
-2 -2 -1 -1 -1 -1 -1 -1 -1 -0 -0 -0 -0 -0 -0 -0 -0 -0 -0 0 0 -0 -0 0 1 1 1 0 -1 -2 -1 -1 -1 -1 -1 -0 -1 -0 -1 -2 -3 -0 -2
-2 -2 -2 -2 -2 -2 -2 -2 -2 -1 -1 -1 -1 -1 -1 -1 -1 -1 -1 -1 -1 -1 -2 -2 -1 -1 -3 -3 -3 -3 -2 -2 -2 -3 -2 -3 -3 -3 -3 -5 -6 -6 -7
-3 -3 -3 -3 -3 -3 -3 -3 -3 -3 -3 -3 -2 -2 -2 -3 -3 -3 -3 -3 -3 -3 -3 -4 -5 -5 -5 -6 -7 -7 -8 -8 -7 -9 -8 -9 -8 -9 -8 -9 -9 -9 -10

GFSMW_700_temp_072.txt.gz
Temp
8 8 8 8 7 7 7 6 6 6 6 6 5 5 4 3 3 2 2 1 2 2 1 -0 0 1 1 1 1 1 1 2 2 1 1 1 1 2 1 1 1 1 1
8 9 8 8 8 7 7 6 6 6 6 6 5 5 3 3 3 2 2 1 1 2 1 -0 0 1 1 -0 -0 0 0 1 1 2 1 1 1 1 1 1 1 0 0
8 9 9 8 8 7 7 6 6 6 6 6 5 4 4 3 3 3 2 1 1 1 1 1 1 -0 -0 -0 -1 -0 -1 0 0 2 1 1 1 1 1 -1 1 0 0
9 9 9 8 8 7 7 6 6 6 6 6 5 4 3 3 3 2 2 2 2 1 1 1 0 0 -1 -1 -1 -1 -0 0 1 1 1 1 0 0 1 1 1 -0 0
9 9 9 8 8 8 7 6 6 6 6 6 6 4 4 3 3 2 2 2 1 1 1 1 1 1 1 0 -1 -1 -1 -0 0 1 1 1 0 -0 -0 -1 -2 -0 0
9 9 9 8 8 8 7 6 6 6 6 6 6 5 4 4 4 3 2 1 1 1 1 1 1 1 1 0 -0 -1 -1 -3 -1 -1 -0 -0 0 0 -1 -1 -2 -2 -1
8 8 9 9 9 8 7 6 6 6 6 6 6 5 4 4 3 3 3 2 1 1 1 1 1 0 1 0 0 -0 -1 -1 -3 -2 -1 -1 -0 -2 -2 -3 -2 -2 -2
8 8 9 9 9 8 7 6 6 6 6 6 6 5 5 4 4 3 3 3 2 2 1 1 1 0 0 0 0 -0 -1 -1 -1 -2 -3 -2 -2 -3 -3 -2 -2 -2 -2
9 9 9 9 9 8 7 6 5 5 5 5 5 5 5 4 4 3 3 3 3 2 1 1 1 0 0 0 0 0 -1 -1 -1 -1 -1 -2 -2 -3 -3 -2 -3 -3 -2
9 9 10 10 9 8 7 5 5 5 6 5 5 5 5 5 4 4 3 2 2 2 1 0 0 0 0 0 -0 0 -0 -0 -1 -0 -1 -1 -1 -2 -2 -2 -3 -2 -2
9 9 10 9 8 7 6 5 5 5 5 5 6 5 5 5 4 4 3 3 3 3 1 0 -1 -1 -1 -0 0 0 0 -0 0 -0 -0 -1 -1 -1 -1 -2 -2 -2 -2
9 9 9 8 8 7 5 5 4 3 4 5 6 6 5 5 5 4 3 3 2 3 2 1 1 0 -1 -0 -1 -1 -0 -1 -1 -1 -1 -1 -1 -1 -1 -2 -2 -2 -2
8 8 8 8 7 6 5 5 4 4 5 5 5 5 5 6 5 5 5 4 3 2 2 2 2 2 1 1 0 -1 -0 -1 -1 -1 -1 -1 -2 -1 -2 -2 -2 -2 -2
3 6 7 7 7 6 5 5 5 5 5 4 4 4 5 5 5 5 5 5 5 4 4 3 3 2 2 1 1 1 1 1 1 0 0 -0 -1 -0 -1 -1 -1 -1 -1
2 2 3 4 6 5 5 4 4 4 3 4 4 4 4 4 4 5 5 5 5 5 4 4 4 4 4 4 3 2 2 2 2 2 2 2 1 1 1 0 0 0 -0
-0 0 1 2 2 2 3 3 1 2 3 4 4 4 4 4 4 4 4 4 4 4 4 4 4 3 4 4 4 3 3 3 2 2 2 2 2 2 2 1 1 1 0
-2 -1 -0 -0 -0 0 1 1 1 2 3 4 4 4 4 4 4 4 4 4 4 4 4 4 4 4 3 3 3 3 2 2 2 2 3 3 3 3 3 3 2 2 1
-1 -2 -2 -1 -1 0 1 1 2 2 2 3 3 4 4 4 4 4 4 4 4 4 3 3 4 4 4 4 4 4 4 3 4 3 3 3 3 3 2 2 2 3 2
-2 -2 -3 -3 -3 -2 -0 0 1 2 2 2 2 2 2 2 2 3 3 3 3 3 4 3 3 3 3 3 4 4 3 3 3 3 3 3 2 2 2 1 1 1 0
-3 -4 -2 -2 -1 0 0 1 1 1 1 2 2 2 2 2 2 2 2 2 2 3 3 3 4 4 4 4 4 4 3 3 2 2 2 2 2 2 1 1 1 0 -0
-3 -3 -3 -3 -1 -0 0 0 1 1 1 1 1 2 2 2 2 3 2 2 2 2 2 2 2 3 3 3 4 4 4 3 3 2 2 2 2 2 1 0 1 1 1
-3 -3 -2 -1 -1 -1 -0 0 0 0 0 1 1 1 1 2 2 2 2 2 3 2 2 2 2 2 2 2 2 3 3 3 3 3 1 0 0 0 -0 -0 1 -0 0
-4 -2 -2 -2 -1 -1 -1 -1 -1 -0 -0 -0 -0 0 0 0 0 0 0 0 1 1 1 1 1 1 1 1 1 1 1 1 1 1 0 -2 -2 -2 -1 -1 -1 -1 -1
-3 -3 -2 -2 -1 -2 -1 -1 -1 -1 -1 -1 -1 -1 -1 -1 -1 -1 -1 -1 -1 -1 -1 -1 -1 -1 -0 -0 0 0 -0 -1 -2 -2 -3 -3 -3 -2 -2 -2 -2 -3 -3
-4 -3 -3 -3 -3 -2 -2 -2 -2 -3 -2 -2 -2 -2 -2 -3 -3 -3 -3 -3 -3 -3 -3 -3 -3 -3 -3 -3 -2 -2 -3 -4 -5 -5 -5 -5 -5 -6 -7 -7 -8 -8 -9
-5 -4 -4 -4 -4 -3 -3 -3 -4 -4 -4 -4 -4 -4 -4 -5 -5 -5 -5 -5 -5 -5 -5 -5 -5 -6 -6 -6 -7 -7 -7 -8 -8 -9 -9 -8 -8 -9 -10 -11 -11 -11 -11

GFSMW_700_temp_075.txt.gz
Temp
7 8 8 8 8 7 7 7 6 6 6 5 5 5 4 3 3 3 3 2 2 2 2 2 2 1 1 1 2 2 1 1 1 1 0 1 1 1 2 1 1 1 1
7 7 8 8 8 8 7 7 6 6 6 5 5 5 4 3 2 3 2 2 1 1 2 2 2 1 0 1 1 2 1 1 1 1 0 0 1 1 1 2 1 1 1
7 8 8 8 8 8 8 7 6 6 6 5 5 4 3 3 3 2 2 2 1 1 1 1 2 1 1 1 2 1 2 2 2 1 1 1 1 1 1 1 1 1 1
7 8 8 8 8 8 8 7 6 6 5 5 5 4 3 2 2 2 2 2 1 1 2 2 1 0 1 1 1 1 1 1 1 1 1 -0 0 1 1 1 0 0 -1
7 8 8 9 8 8 8 7 6 6 5 5 5 4 4 3 2 2 2 2 1 1 1 1 1 1 1 1 1 1 0 -0 -1 -0 -0 0 1 1 0 0 -0 -0 -0
7 8 9 9 8 8 7 7 6 6 5 5 5 5 4 3 2 2 2 2 2 1 2 1 1 1 1 0 0 0 -0 -0 -0 -0 -0 -0 -0 -0 0 0 -0 -1 -1
7 8 9 9 8 8 7 7 6 6 5 5 5 5 4 3 3 2 2 2 1 2 1 1 1 1 1 0 0 0 0 1 -0 -1 -1 -1 -1 -1 -1 -1 -1 -1 -1
7 8 8 9 9 8 8 7 6 6 5 5 5 5 5 4 3 3 2 2 2 1 1 1 1 1 1 0 0 0 0 1 0 -1 -2 -3 -3 -2 -2 -1 -2 -3 -2
7 8 8 8 8 9 8 7 6 5 5 5 5 5 5 5 4 3 3 2 2 1 1 1 1 1 1 0 0 0 0 0 0 -0 -1 -1 -2 -2 -2 -2 -3 -2 -2
7 8 8 8 8 9 8 7 6 5 5 5 6 6 5 5 4 4 3 3 3 3 2 1 1 1 1 0 1 1 0 1 0 -0 -0 -1 -1 -1 -2 -2 -2 -3 -2
8 8 8 9 8 8 8 7 5 5 5 5 5 6 6 6 5 5 4 3 3 3 2 1 1 1 1 0 1 1 1 0 -0 -0 -1 -1 -1 -1 -1 -1 -1 -2 -1
8 8 8 9 9 8 7 6 5 5 5 5 5 5 5 5 5 5 5 4 3 3 2 2 1 1 0 0 -0 -0 0 0 0 -0 -0 -0 -1 -0 -1 -1 -1 -1 -1
4 6 8 8 8 7 7 5 5 5 5 5 5 4 5 5 5 5 5 5 4 4 3 3 2 2 2 2 1 1 0 -0 0 -0 -0 -0 -0 -0 -0 -1 -1 -1 -2
2 4 6 6 6 6 6 5 5 5 5 5 4 5 4 5 5 5 5 5 5 4 4 3 3 3 2 2 2 1 1 0 -0 -1 -1 -1 -1 -1 -1 -1 -2 -2 -2
2 1 2 3 3 4 5 5 5 5 4 4 4 4 4 4 4 4 4 5 5 4 4 4 4 4 4 3 3 2 2 2 2 2 1 1 1 1 1 -0 0 -1 -1
1 1 2 2 2 2 2 4 4 4 4 3 4 3 4 4 4 4 4 4 4 3 3 4 4 4 1 4 4 3 3 3 3 3 3 4 3 3 2 1 0 -0 -1
-2 -1 -1 -0 0 1 1 2 2 3 2 2 1 3 3 3 3 4 4 4 4 3 3 3 3 3 3 3 3 3 3 3 3 3 3 3 3 3 3 3 2 2 2
-3 -2 -2 -2 -1 -2 -1 -1 -0 0 -0 0 2 3 3 3 3 4 3 3 3 3 3 3 2 3 3 3 2 2 2 2 2 1 1 1 2 2 1 1 1 2 2
-2 -2 -2 -2 -3 -3 -4 -3 -1 -0 0 1 1 2 2 3 3 3 3 3 3 3 3 3 3 3 3 3 3 3 3 3 3 2 2 2 2 2 2 2 2 1 1
-3 -3 -3 -3 -3 -4 -3 -3 -1 -0 -0 1 1 1 2 2 2 2 2 2 2 3 3 3 3 3 3 3 3 3 3 3 3 3 3 2 2 2 2 2 2 1 0
-3 -4 -4 -4 -4 -4 -2 -1 -0 0 0 0 0 1 1 1 1 1 2 2 2 2 2 2 2 2 2 2 3 3 3 3 3 3 3 3 2 2 1 1 0 -1 -1
-3 -4 -3 -3 -3 -2 -2 -1 -1 -0 0 0 1 1 1 1 1 1 1 1 1 1 1 1 1 1 1 1 1 1 1 1 2 2 2 2 2 1 0 -0 -3 -3 -3
-5 -4 -3 -3 -3 -2 -2 -1 -1 -0 -1 -0 -0 0 0 0 0 0 0 1 1 1 1 0 0 0 0 0 0 0 -0 -0 -0 -0 0 0 1 1 0 -1 -3 -4 -4
-6 -5 -4 -4 -3 -3 -2 -2 -2 -2 -2 -2 -1 -1 -1 -1 -1 -1 -1 -1 -1 -1 -1 -2 -2 -2 -2 -2 -2 -1 -1 -1 -1 -2 -2 -2 -2 -3 -4 -4 -5 -6 -6
-5 -5 -4 -4 -3 -3 -3 -3 -3 -3 -3 -3 -2 -2 -2 -2 -2 -2 -3 -3 -3 -3 -4 -4 -4 -4 -4 -4 -4 -4 -4 -4 -4 -4 -4 -4 -5 -5 -6 -7 -8 -8 -9
-6 -5 -5 -4 -4 -4 -4 -4 -4 -4 -4 -4 -4 -4 -4 -4 -5 -5 -5 -5 -5 -5 -6 -6 -6 -6 -6 -6 -6 -6 -6 -7 -7 -7 -8 -8 -8 -8 -8 -9 -10 -10 -10

GFSMW_700_temp_078.txt.gz
Temp
6 6 7 8 8 8 7 7 7 6 6 6 6 6 5 5 4 4 3 3 2 3 1 1 2 2 1 1 1 0 0 1 1 1 0 1 2 1 2 2 2 2 2
6 7 7 8 8 8 7 7 7 6 6 6 6 6 5 5 4 3 3 3 2 1 3 1 2 2 1 1 1 1 1 1 1 1 1 1 1 1 2 2 1 2 2
5 6 7 8 8 8 8 8 7 6 6 6 6 6 5 4 4 3 3 3 2 1 2 2 1 2 2 1 1 1 1 2 2 1 2 1 1 1 1 2 2 2 2
5 6 7 8 8 8 8 7 7 6 6 5 5 5 5 4 3 3 3 2 2 1 1 1 2 1 1 1 1 1 1 1 1 1 1 -1 -1 1 2 1 1 1 2
6 6 7 8 8 8 8 8 7 7 6 5 5 5 5 4 3 3 3 2 2 2 1 2 1 1 1 1 0 1 1 1 1 1 1 1 1 0 -1 1 1 1 1
6 7 7 7 8 8 8 8 7 7 6 5 5 5 5 4 4 3 3 3 2 2 1 1 1 1 1 0 1 1 1 1 1 0 -0 -1 -0 -0 0 0 0 0 -0
6 6 7 8 8 8 8 8 7 7 6 5 5 5 5 5 4 3 2 2 2 1 1 1 1 1 1 1 0 1 1 1 0 -0 -0 -0 -1 -1 -1 -0 -2 -1 -1
6 7 7 8 8 8 8 8 7 7 6 5 5 6 5 5 4 4 3 2 2 2 1 1 1 1 1 1 0 -0 -0 0 0 0 -1 -2 -2 -2 -1 -1 -1 -1 -1
6 7 7 8 8 8 8 7 7 7 6 5 5 6 6 5 4 4 3 3 2 2 1 1 1 1 1 1 1 0 0 0 0 0 0 0 -0 -0 -1 -2 -3 -2 -1
6 7 7 8 8 8 8 8 7 6 5 5 5 5 5 5 5 4 4 3 3 3 3 2 1 1 1 1 1 0 0 1 1 1 1 0 0 -0 -1 -2 -2 -2 -1
6 7 7 7 7 8 8 8 7 6 6 5 5 6 5 5 5 5 4 4 3 3 4 2 1 1 1 1 1 1 0 0 0 0 0 0 -0 -0 -0 -1 -1 -1 -2
6 7 7 7 7 8 8 7 6 6 5 5 5 6 5 5 5 5 4 4 4 4 2 2 1 1 1 1 1 1 1 1 1 0 0 0 -0 0 -0 -0 -1 -1 -1
3 5 7 7 7 8 7 6 5 5 6 5 5 5 5 5 5 5 5 4 4 4 4 3 2 2 1 1 1 1 0 0 0 1 1 1 0 -0 -0 -0 -0 -0 -0
2 3 5 7 7 7 6 6 5 5 6 5 5 5 5 5 5 5 5 4 4 4 3 3 2 1 1 1 1 1 1 1 0 0 0 -0 -0 -0 -0 -0 -0 -1 -1
1 2 3 2 4 4 4 4 4 4 5 4 4 4 4 4 4 4 4 4 4 4 4 3 2 1 2 3 3 2 2 1 1 1 0 -0 -0 -0 -0 0 1 0 0
1 1 2 2 2 1 2 2 2 3 4 4 3 3 3 3 3 3 3 3 3 3 4 3 3 3 3 3 3 2 2 1 1 1 1 0 0 -0 -0 -0 -0 -1 -0
-2 -0 1 2 2 2 2 2 2 2 3 3 3 3 2 2 3 3 3 3 3 3 3 3 3 3 3 3 3 2 1 1 1 1 1 1 1 0 0 0 -0 -0 -0
-3 -5 -2 -1 1 1 1 2 1 1 2 2 2 2 2 1 1 2 2 2 2 2 2 2 2 2 2 2 2 2 1 1 1 1 1 1 1 1 1 1 1 1 1
-3 -2 -3 -2 -3 -2 -2 -1 -1 -1 -0 -0 -0 1 0 -1 1 2 2 2 2 2 2 2 2 2 2 3 2 2 2 2 2 2 2 2 2 2 2 1 1 -0 -0
-3 -3 -3 -3 -3 -3 -3 -3 -3 -3 -2 -2 -2 -3 -1 1 1 1 2 2 2 2 2 2 2 2 2 3 2 2 2 2 2 2 2 2 2 2 2 2 2 2 1
-3 -3 -3 -3 -3 -4 -4 -5 -4 -3 -3 -3 -3 -2 -0 1 1 1 1 1 2 2 2 2 2 2 2 2 2 2 2 2 1 1 2 1 1 1 1 1 1 0 0
-4 -4 -4 -4 -4 -4 -4 -3 -3 -2 -2 -1 -1 -1 -0 -0 0 0 -0 -0 0 1 1 1 0 0 0 0 0 0 0 0 0 0 1 1 1 1 1 0 0 -0 -1
-4 -5 -5 -4 -4 -3 -3 -3 -3 -3 -2 -2 -1 -0 -1 -0 -0 -1 -1 -0 -0 -0 -1 -1 -1 -1 -1 -1 -1 -1 -1 -1 -1 -1 -1 -1 -1 -1 -1 -1 -1 -2 -2
-5 -5 -5 -4 -4 -3 -3 -3 -3 -2 -2 -2 -2 -2 -2 -2 -2 -2 -2 -1 -1 -1 -2 -2 -2 -2 -2 -2 -2 -2 -3 -3 -3 -3 -3 -3 -3 -3 -3 -3 -4 -4 -5
-5 -5 -5 -4 -4 -4 -4 -3 -3 -3 -3 -3 -3 -3 -3 -3 -3 -3 -3 -3 -3 -3 -3 -3 -3 -4 -4 -4 -4 -4 -4 -4 -5 -5 -5 -5 -5 -5 -5 -5 -6 -6 -7
-5 -6 -5 -5 -5 -5 -4 -4 -4 -4 -4 -4 -4 -4 -4 -5 -5 -5 -5 -5 -5 -5 -5 -5 -5 -5 -5 -6 -6 -6 -6 -6 -6 -7 -7 -7 -7 -7 -7 -8 -8 -8 -8

GFSMW_700_temp_084.txt.gz
Temp
6 7 7 7 8 8 7 7 7 8 8 8 7 7 6 6 6 6 6 6 5 4 3 3 3 3 3 2 2 2 1 1 1 1 0 2 2 3 2 3 4 4 4
6 7 7 8 8 7 7 6 8 8 8 8 7 7 6 6 6 6 6 5 5 4 3 3 3 2 2 2 2 2 1 2 1 0 1 1 0 2 2 3 3 4 4
6 6 7 7 7 7 6 6 8 8 8 7 7 7 6 6 6 6 6 5 4 3 3 3 3 3 2 2 2 2 1 1 0 0 1 2 1 2 2 2 2 3 3
6 6 7 7 7 7 6 6 8 8 7 7 7 7 6 6 5 6 5 5 4 3 3 3 3 2 1 2 1 2 1 0 0 0 1 0 1 2 2 2 2 2 2
6 7 7 7 7 7 7 7 8 8 8 8 7 7 6 6 6 6 6 4 4 3 3 3 2 1 1 1 1 1 1 1 0 0 0 1 -0 -0 1 1 1 1 2
6 6 6 7 7 7 7 7 7 7 8 8 7 7 6 6 6 6 5 4 3 3 3 2 2 1 2 1 1 1 1 1 0 0 0 -1 0 -0 -0 0 0 -0 1
5 5 6 7 7 6 7 7 7 7 8 7 7 7 7 6 6 6 5 4 3 3 3 2 2 1 2 1 1 2 1 0 1 0 0 -0 0 -0 -1 0 0 -0 -0
4 5 6 7 7 7 6 6 7 7 8 7 7 6 7 6 6 6 5 4 3 3 3 2 2 1 2 1 1 1 1 0 0 0 -0 -0 -0 -0 -0 -0 -1 0 -1
4 5 5 6 6 6 6 6 6 7 7 7 7 6 6 6 6 6 5 4 4 3 2 2 1 1 1 0 1 1 1 0 0 1 -0 -1 -1 -1 -0 -0 -1 -0 -1
3 4 5 4 5 4 5 6 6 7 7 7 7 6 6 6 6 6 5 5 4 4 2 2 1 1 1 1 1 1 0 0 1 -0 -1 -1 -1 -1 -1 -1 -0 -0 -0
3 3 3 4 4 4 4 4 5 6 6 6 6 6 6 6 6 6 5 4 4 3 3 2 1 1 1 1 1 0 0 0 0 -0 -0 -1 -0 -0 -0 -0 -0 -0 -0
3 3 3 3 4 5 4 3 4 5 6 6 6 6 6 6 6 6 5 5 4 4 3 3 1 1 1 1 1 1 1 1 0 -0 -0 0 -0 -0 -0 -0 0 0 0
0 1 3 3 4 4 5 4 5 5 4 5 6 6 6 6 6 6 5 5 4 4 4 3 3 2 1 1 1 1 1 0 1 1 0 0 1 0 0 0 0 -0 0
-0 0 1 1 2 3 5 4 3 5 4 5 6 6 6 6 6 6 5 5 5 5 4 4 3 2 1 1 1 1 1 1 1 1 1 1 0 0 0 0 1 0 0
-1 0 0 1 1 1 2 2 1 3 4 5 5 6 5 5 5 5 5 5 5 4 4 4 4 2 2 1 1 1 0 1 0 1 1 0 -0 -0 -1 -0 -0 -0 -0
-1 -0 -0 0 1 1 1 1 2 2 2 4 3 4 5 5 4 4 4 4 4 4 4 4 4 3 2 2 1 1 1 0 -0 0 1 1 0 -0 -1 -0 -0 0 0
-2 -1 -1 -1 0 1 1 0 2 2 2 1 2 2 3 3 3 3 3 3 3 3 3 3 3 3 2 2 2 1 1 1 1 1 1 0 -0 -0 -0 -0 -0 0 0
-2 -2 -2 -2 -1 -0 1 1 1 1 2 2 2 2 1 1 1 1 2 1 2 2 1 2 3 2 2 1 1 1 1 0 -0 -0 0 0 1 1 1 1 1 0 0
-3 -3 -3 -3 -3 -2 -1 0 1 1 1 2 2 2 1 2 2 2 2 2 1 1 1 1 1 1 1 1 1 1 1 1 0 0 0 1 0 -0 0 0 0 0 -0
-4 -4 -3 -3 -3 -4 -5 -4 -2 -2 -1 -1 -1 1 0 1 1 0 0 1 1 1 0 -0 -0 -0 0 0 0 0 0 0 0 0 0 1 1 1 1 1 1 1 1
-5 -5 -4 -4 -4 -4 -4 -4 -5 -5 -5 -3 -3 -2 -4 -2 -4 -3 -3 -1 -0 -0 -1 -2 -0 0 1 1 1 1 1 1 0 0 0 0 0 0 0 0 -0 -0 -0
-5 -5 -5 -5 -5 -5 -5 -5 -5 -4 -5 -5 -4 -5 -5 -5 -3 -5 -4 -5 -5 -5 -3 -2 -1 0 0 0 0 0 -0 -0 -0 -0 -1 -1 -1 -1 -1 -1 -1 -2 -2
-6 -6 -6 -5 -5 -6 -6 -5 -5 -5 -5 -5 -5 -5 -5 -4 -4 -5 -5 -5 -5 -5 -3 -3 -2 -1 -1 -1 -1 -1 -1 -1 -1 -2 -2 -2 -3 -3 -3 -3 -3 -3 -3
-6 -5 -5 -6 -7 -6 -6 -6 -6 -5 -4 -4 -4 -5 -5 -4 -4 -4 -4 -4 -5 -5 -5 -5 -4 -3 -2 -2 -2 -2 -3 -3 -3 -3 -3 -4 -4 -4 -4 -4 -4 -4 -5
-6 -6 -6 -6 -6 -7 -7 -6 -6 -6 -5 -5 -5 -5 -4 -4 -5 -5 -5 -5 -4 -4 -4 -4 -4 -4 -4 -4 -4 -4 -4 -4 -5 -5 -5 -5 -5 -5 -6 -6 -6 -6 -6
-7 -7 -6 -6 -7 -7 -6 -6 -6 -6 -5 -5 -5 -5 -5 -5 -5 -5 -5 -5 -5 -5 -5 -5 -6 -6 -6 -5 -5 -6 -6 -6 -6 -6 -6 -6 -7 -7 -7 -7 -7 -7 -8

GFSMW_700_temp_087.txt.gz
Temp
7 6 6 6 7 6 7 7 7 7 7 7 7 7 7 7 6 6 6 6 6 5 4 4 3 3 3 2 2 2 2 2 2 1 1 1 1 1 3 3 3 4 4
6 6 7 7 7 7 7 7 7 7 7 7 7 7 7 7 6 6 5 5 5 5 4 3 3 3 3 3 3 2 2 2 1 1 1 1 0 1 2 3 4 3 4
5 6 6 7 7 7 7 7 7 7 7 7 7 7 7 7 6 6 5 5 6 5 4 3 3 3 2 3 3 2 2 1 1 0 1 1 1 2 2 3 3 3 4
5 5 6 7 7 7 7 7 7 7 7 7 7 7 7 7 6 6 5 6 6 5 5 4 3 2 2 3 2 2 2 2 1 1 1 1 0 2 2 2 2 3 3
6 5 6 7 7 7 7 7 7 7 7 7 7 7 7 7 6 6 6 6 5 4 4 3 3 3 2 1 2 2 1 1 1 1 1 -0 -1 -1 0 1 2 2 2
6 5 6 6 6 7 7 7 7 7 7 7 7 7 7 7 6 6 5 6 5 4 3 3 3 2 1 1 1 2 1 2 1 0 0 -0 -1 -0 0 1 1 1 1
5 5 6 6 6 6 6 7 7 7 7 7 7 7 7 6 6 5 6 6 5 4 3 3 2 2 2 1 2 1 2 1 1 1 0 0 -0 -2 -0 0 0 0 0
5 4 5 6 6 6 5 6 6 7 6 6 7 7 7 6 6 6 6 6 5 4 3 2 2 1 1 1 1 1 1 1 1 1 0 -0 0 -1 0 0 -0 0 -0
4 5 5 5 6 6 6 6 6 6 6 6 6 7 6 6 6 5 6 6 5 4 3 2 1 1 1 2 1 1 1 1 0 0 0 0 0 -1 -1 -1 -1 -0 0
4 4 5 5 5 6 4 4 5 5 5 5 6 6 6 6 5 5 6 6 5 4 3 2 2 1 1 1 1 1 1 1 0 0 0 0 0 -1 -1 -1 -1 -1 -1
3 4 4 4 4 4 3 2 3 3 5 5 5 6 6 6 5 5 6 6 5 4 2 2 1 1 1 1 0 1 1 0 1 0 0 -0 0 -1 -1 -1 -2 -1 -1
3 3 4 4 3 4 3 3 3 3 3 3 5 5 6 5 5 5 6 6 5 4 3 3 2 0 1 1 1 1 1 0 0 -0 -0 0 -0 -0 -1 -1 -0 -1 -1
-0 2 3 4 4 3 4 4 3 3 3 3 3 5 5 5 5 5 6 5 5 5 4 3 2 -1 0 1 1 0 0 0 0 0 -0 -0 -0 0 -0 -0 -0 0 0
-1 -1 0 1 2 3 4 4 4 3 3 3 3 4 5 5 5 5 6 6 5 5 5 4 3 1 1 1 1 0 0 1 0 0 0 1 -0 0 0 -0 -0 -0 -0
-1 -1 -0 -0 0 1 1 2 3 2 2 3 2 3 4 5 4 5 5 5 5 5 5 4 3 3 1 1 1 1 1 0 1 1 0 1 1 0 0 -1 -0 -0 -0
-2 -1 -1 -0 -0 1 1 0 2 1 2 2 3 2 3 3 3 4 4 4 4 4 4 4 4 3 2 1 0 1 1 0 0 1 1 0 -0 0 -0 -1 -1 0 0
-2 -2 -2 -1 -1 0 0 1 1 1 1 1 1 2 2 1 2 3 4 4 4 4 4 4 4 3 2 2 1 0 0 0 -0 0 1 0 1 0 -0 -0 -0 -0 -0
-4 -4 -3 -2 -2 -1 -0 0 0 1 1 1 2 1 1 1 1 1 1 1 3 3 3 3 4 3 2 0 0 0 0 -0 -0 -0 -0 -0 0 -0 -0 -0 -0 0 0
-3 -4 -4 -4 -3 -3 -2 -1 -0 0 -0 1 1 1 1 1 1 1 0 1 1 0 1 1 2 3 2 1 -1 -1 -0 -0 -1 -1 -0 -0 -0 -1 -1 -0 -0 -0 -0
-4 -5 -5 -5 -5 -4 -4 -3 -2 -2 -1 -1 -1 0 0 1 1 1 1 1 1 1 1 1 1 1 -0 1 0 0 0 0 -1 -1 -0 -0 -0 -1 0 0 0 0 1
-4 -5 -5 -5 -5 -5 -5 -4 -3 -4 -4 -4 -3 -3 -3 -3 -2 -3 -1 -1 -1 -1 -0 -1 -1 -0 0 -1 -1 -1 -1 -2 -2 -1 0 0 0 0 0 -0 -0 -0 -0
-6 -6 -6 -6 -6 -6 -5 -5 -5 -5 -4 -4 -4 -4 -4 -4 -4 -4 -4 -4 -4 -4 -4 -4 -3 -4 -2 -2 -2 -1 -1 -1 -1 -0 -1 -1 -0 -1 -1 -1 -1 -1 -2
-6 -6 -6 -6 -6 -6 -6 -6 -5 -5 -6 -6 -6 -6 -6 -5 -5 -5 -5 -5 -5 -6 -6 -7 -5 -5 -4 -3 -2 -2 -2 -2 -2 -2 -2 -2 -2 -2 -2 -2 -2 -3 -3
-7 -7 -7 -6 -6 -6 -6 -6 -6 -6 -7 -7 -7 -6 -7 -7 -7 -6 -7 -6 -6 -5 -5 -5 -5 -5 -5 -5 -5 -4 -3 -4 -3 -3 -2 -2 -3 -4 -4 -4 -4 -4 -5
-7 -7 -7 -7 -7 -7 -7 -7 -7 -7 -7 -7 -7 -7 -7 -7 -7 -7 -6 -6 -6 -6 -6 -6 -5 -5 -6 -5 -5 -5 -5 -5 -4 -4 -4 -4 -5 -5 -5 -5 -5 -6 -6
-7 -8 -8 -7 -7 -8 -8 -7 -7 -7 -7 -7 -7 -7 -7 -8 -8 -7 -7 -7 -7 -7 -7 -7 -7 -7 -6 -6 -6 -6 -6 -6 -6 -6 -6 -7 -7 -7 -7 -7 -7 -7 -7

GFSMW_700_temp_093.txt.gz
Temp
4 5 5 5 5 6 6 6 6 6 6 5 6 6 6 5 6 6 6 6 6 6 6 5 5 5 5 4 3 3 3 3 2 2 2 2 2 2 2 1 2 2 2
4 4 5 5 5 6 6 6 6 5 6 6 6 6 6 6 5 5 6 6 6 6 6 5 5 5 4 4 3 3 3 3 2 2 2 2 2 2 2 1 2 1 2
2 3 4 5 5 6 6 6 6 6 6 6 6 6 6 5 3 5 6 6 6 6 6 5 5 5 4 3 3 3 3 3 2 2 2 2 2 2 1 1 1 1 2
3 4 4 5 5 6 6 6 6 6 6 6 6 6 6 6 5 6 6 6 6 6 6 5 5 5 3 3 3 3 3 2 2 2 2 1 1 1 1 1 1 1 3
1 3 4 4 5 6 5 6 6 6 6 6 6 6 6 6 5 5 5 6 5 6 6 5 5 5 3 3 3 3 2 2 2 2 2 2 1 2 1 1 1 0 3
2 2 3 4 5 6 5 6 6 6 6 6 6 6 6 6 5 5 6 5 5 6 6 5 5 5 4 3 3 3 2 2 2 1 1 2 1 2 2 1 -0 -0 1
-0 1 2 3 4 5 5 5 6 6 7 6 7 7 6 6 5 5 6 6 6 6 5 5 5 4 4 3 3 3 2 2 2 1 2 2 2 1 0 0 -1 0 0
-1 1 2 3 4 5 5 5 6 6 7 7 6 5 6 5 5 5 6 5 6 6 6 6 5 4 3 3 3 2 2 2 2 1 2 2 2 1 0 0 0 -0 1
-1 -1 -0 2 3 4 5 5 5 6 6 6 5 4 4 5 5 6 6 6 5 6 6 6 4 3 3 2 2 2 2 1 1 1 1 1 1 0 0 0 0 -0 -1
-1 -0 1 2 3 3 4 5 5 5 5 4 4 3 4 4 5 5 6 5 5 6 5 6 4 3 3 2 2 1 1 1 1 1 1 2 1 1 0 0 -0 -1 -2
-1 0 1 1 3 3 3 4 4 4 3 3 2 2 3 4 4 5 5 5 5 5 6 5 5 4 3 2 1 1 1 1 2 2 1 1 0 0 0 0 -0 0 -1
-2 -1 -1 -0 1 3 3 3 3 3 2 1 1 2 2 3 3 5 5 5 5 5 6 5 5 4 2 0 0 1 0 0 1 1 1 1 1 0 0 -0 -0 -0 -0
-2 -1 -1 -1 0 1 2 2 2 2 2 2 1 2 1 2 3 5 5 5 5 5 5 5 5 4 3 -0 -0 1 0 1 1 0 1 1 0 1 0 0 -0 -0 -0
-1 -1 -1 -1 -1 0 1 1 1 1 1 0 1 1 1 2 3 4 5 5 5 5 5 5 4 4 3 -1 -0 1 1 0 0 0 -0 1 1 0 0 -0 -0 -0 -0
-3 -2 -1 -1 -1 -1 -1 1 0 1 1 0 0 0 1 2 2 3 4 4 4 4 5 4 4 4 3 0 1 1 1 0 0 -0 0 1 0 -0 -0 -0 -0 -0 0
-3 -3 -2 -2 -1 -1 -1 -1 -0 -0 1 2 0 -0 0 2 2 2 3 3 3 3 3 4 4 4 4 1 -0 0 1 1 0 0 -0 0 -0 -0 -0 -0 -0 -0 -1
-3 -3 -3 -2 -2 -2 -1 -1 -1 -0 1 1 -0 1 1 1 1 2 2 2 3 3 3 3 3 3 3 2 1 0 1 1 0 0 0 0 0 -0 -0 -0 -1 -1 -1
-4 -4 -3 -3 -3 -2 -2 -2 -1 -1 -0 0 1 0 1 0 1 0 1 2 3 2 2 2 3 2 2 1 -0 -0 1 1 1 1 -0 -0 0 -0 -0 -0 -1 -1 -0
-5 -5 -4 -3 -4 -4 -3 -3 -2 -1 -1 -1 -0 0 -0 -0 1 1 0 1 0 0 1 1 2 2 0 -0 -1 -1 -1 -0 -0 0 -0 -0 -1 -0 -0 -1 -1 -1 -1
-6 -5 -5 -5 -4 -5 -4 -4 -4 -3 -2 -2 -1 -1 -1 -0 0 0 0 0 0 0 0 0 -0 -0 0 -1 -2 -2 -2 -1 -1 -1 -2 -1 -1 -1 -1 -1 -2 -1 -1
-6 -6 -5 -5 -5 -5 -5 -5 -5 -4 -4 -3 -3 -3 -3 -2 -2 -1 -1 -0 -0 -0 -1 -0 -0 -1 -1 -2 -2 -2 -1 -1 -1 -1 -1 -1 -2 -1 -1 -1 -1 -1 -1
-6 -6 -6 -6 -6 -6 -6 -6 -6 -5 -5 -4 -5 -5 -4 -4 -3 -3 -2 -2 -2 -2 -2 -2 -2 -2 -1 -2 -1 -1 -1 -2 -1 -1 -1 -2 -1 -2 -2 -2 -2 -2 -3
-6 -6 -6 -6 -7 -6 -6 -6 -6 -6 -5 -5 -5 -6 -5 -5 -5 -5 -5 -5 -4 -4 -4 -4 -4 -4 -4 -4 -4 -4 -4 -4 -4 -4 -4 -3 -2 -3 -3 -5 -6 -5 -4
-7 -7 -7 -7 -7 -7 -7 -7 -6 -7 -6 -6 -6 -6 -6 -7 -6 -6 -6 -6 -6 -6 -6 -6 -6 -5 -5 -5 -5 -5 -5 -6 -6 -6 -6 -7 -7 -7 -7 -6 -5 -5 -5
-7 -7 -7 -7 -7 -7 -7 -7 -7 -7 -7 -7 -7 -7 -7 -7 -7 -7 -7 -7 -7 -7 -7 -7 -7 -7 -7 -7 -7 -7 -7 -7 -7 -6 -6 -6 -6 -6 -6 -6 -6 -7 -7
-7 -8 -7 -7 -7 -7 -8 -8 -8 -8 -8 -8 -8 -8 -8 -8 -8 -8 -8 -8 -7 -7 -7 -7 -7 -7 -7 -7 -7 -7 -7 -7 -7 -7 -7 -7 -7 -7 -8 -8 -8 -7 -6

GFSMW_700_temp_096.txt.gz
Temp
3 3 3 4 4 4 5 5 5 5 5 6 6 6 6 6 6 6 5 6 6 6 6 6 5 5 5 5 4 4 3 2 2 2 2 2 2 2 2 1 1 2 2
2 2 3 3 4 4 5 5 5 5 5 5 6 5 5 6 6 6 6 5 5 5 6 5 5 5 5 5 4 4 3 2 2 2 2 2 2 2 2 2 2 1 2
2 2 1 3 3 4 4 5 5 5 5 5 5 5 5 5 5 5 5 4 5 5 5 5 5 5 5 5 4 4 3 3 2 2 2 2 2 2 2 2 2 1 1
1 2 2 2 3 4 4 5 5 6 6 5 5 5 6 5 5 5 5 3 2 4 5 5 5 5 5 5 4 3 3 2 2 2 2 2 2 2 1 2 2 2 1
1 1 2 2 3 3 4 5 5 6 6 6 6 6 5 5 5 5 4 2 3 5 5 5 5 5 5 5 4 3 2 2 2 2 2 2 2 2 1 1 2 1 1
-1 0 -0 -0 2 4 5 5 5 6 6 6 6 6 6 6 6 5 5 3 5 4 4 5 5 5 5 5 4 3 3 2 2 2 2 2 2 2 2 1 1 1 1
-1 -1 -0 0 2 3 4 5 5 5 5 6 6 6 6 6 6 6 3 4 5 5 5 5 5 5 5 5 4 3 3 2 2 2 2 1 1 1 1 1 1 0 0
-1 -2 -1 1 2 3 4 5 4 5 5 5 6 6 6 6 6 4 5 4 5 5 5 5 5 5 5 4 4 4 3 2 2 2 2 2 2 1 1 1 1 1 0
-1 -2 -1 -0 1 3 4 4 4 4 4 5 5 6 6 6 5 4 3 4 5 5 5 5 5 5 5 4 4 3 2 2 2 2 2 2 1 1 1 1 1 1 0
-1 -2 -1 -1 1 2 3 3 3 4 4 4 4 5 5 5 4 3 2 4 5 5 5 5 5 5 5 4 3 2 2 2 2 2 1 1 1 1 1 1 0 0 -0
-1 -1 -1 -0 0 1 3 3 3 3 4 3 3 4 4 4 3 2 3 4 5 5 5 5 5 5 5 4 2 2 1 2 1 1 1 1 1 2 1 0 0 0 -0
-1 -1 -1 -0 -0 0 2 3 3 2 3 3 3 3 3 2 3 1 2 3 4 5 4 5 5 5 5 4 2 2 1 1 1 1 0 1 2 1 1 0 0 0 0
-2 -1 -1 -0 -0 0 1 2 2 2 2 2 3 2 3 2 2 2 2 3 4 4 4 5 5 5 5 4 3 2 -0 0 1 0 1 0 1 1 1 0 0 0 -0
-2 -2 -1 -0 -1 -1 -0 0 1 1 0 0 1 1 -0 1 1 1 2 2 3 4 4 4 5 4 4 5 4 3 1 1 1 1 0 1 1 1 1 1 0 0 -0
-3 -2 -2 -1 -1 -1 -1 -1 -0 -0 0 1 2 0 -0 0 1 1 2 3 3 3 3 4 4 4 4 4 4 3 1 0 1 -0 0 0 1 -0 1 0 -0 0 -0
-2 -3 -2 -2 -2 -2 -1 -1 -1 -0 -0 0 1 0 0 0 0 0 1 2 2 3 3 3 4 4 4 4 4 2 1 1 0 0 -0 -0 0 1 0 0 0 -0 0
-3 -3 -3 -3 -3 -3 -2 -1 -2 -1 -1 -0 0 0 -1 -1 -0 0 1 2 1 1 2 3 3 4 4 3 3 3 1 1 0 0 0 -0 -0 0 -0 -0 -0 -1 -0
-6 -5 -4 -4 -4 -3 -4 -2 -2 -1 -2 -1 -1 -1 -0 -0 -0 0 0 1 1 1 2 2 3 3 3 3 3 0 0 0 0 0 0 -0 -0 -0 -0 -0 -0 -1 -0
-7 -6 -5 -4 -4 -4 -4 -4 -3 -3 -2 -2 -1 -1 -1 -1 -1 -0 0 1 0 0 0 1 2 2 2 2 2 -1 -1 -1 0 0 0 -0 -1 0 0 -0 -0 -1 -1
-7 -6 -6 -5 -5 -5 -4 -4 -4 -4 -4 -2 -2 -2 -1 -1 -1 -1 -0 -0 0 0 0 0 0 0 1 1 1 -0 -2 -1 -1 -0 -0 -0 -0 -0 -0 -0 -1 -0 -1
-7 -7 -6 -6 -6 -6 -5 -5 -5 -5 -4 -4 -4 -3 -3 -2 -2 -1 -1 -1 -1 -0 -0 -0 -1 -0 -1 -1 -2 -1 -2 -2 -2 -1 -1 -1 -1 -1 -1 -2 -1 -1 -1
-7 -7 -7 -7 -6 -6 -6 -6 -5 -5 -5 -5 -5 -5 -4 -4 -3 -2 -2 -2 -1 -2 -2 -2 -1 -1 -1 -1 -1 -1 -2 -2 -2 -2 -2 -1 -1 -1 -1 -2 -2 -2 -2
-7 -8 -7 -7 -7 -7 -7 -7 -6 -6 -6 -6 -6 -6 -6 -5 -5 -4 -4 -4 -4 -4 -4 -3 -3 -3 -3 -3 -2 -2 -2 -2 -2 -2 -2 -2 -2 -2 -2 -2 -2 -2 -2
-8 -7 -7 -8 -8 -8 -8 -8 -7 -7 -7 -7 -7 -7 -7 -7 -7 -6 -6 -6 -6 -6 -6 -6 -6 -6 -5 -5 -5 -5 -5 -5 -5 -5 -5 -5 -5 -5 -5 -4 -4 -5 -6
-8 -8 -8 -8 -8 -8 -8 -8 -8 -8 -8 -8 -8 -8 -7 -7 -7 -7 -7 -7 -7 -7 -7 -7 -7 -7 -7 -7 -7 -7 -7 -7 -7 -6 -6 -6 -6 -6 -6 -7 -7 -7 -7
-8 -7 -8 -8 -8 -8 -8 -8 -8 -8 -8 -8 -8 -8 -8 -8 -7 -7 -7 -7 -8 -8 -8 -8 -8 -8 -8 -8 -7 -7 -7 -8 -8 -8 -8 -8 -8 -8 -7 -7 -7 -7 -8